[{"header": {"dx": 0.06612293990616946, "dy": 0.0552356325346848, "nx": 98, "ny": 59, "la1": 35.046912555036876, "la2": 31.78801023549047, "lo1": -121.43107172385933, "lo2": -114.95102361305473, "refTime": "2026041219", "parameterCategory": 1, "parameterNumber": 2}, "data": [14.55, 14.55, 14.55, 14.55, 14.18, 14.18, 14.18, 13.81, 13.19, 12.51, 11.53, 9.97, 10.94, 9.77, 8.99, 8.58, 8.15, 7.59, 7.59, 6.44, 6.71, 8.22, 8.15, 8.73, 8.15, 8.94, 8.93, 8.93, 9.3, 9.48, 9.09, 7.15, 8.58, 3.8, 0.0, 1.84, 2.49, 4.0, 4.56, 6.44, 7.6, 9.13, 11.62, 10.37, 9.16, 8.4, 9.67, 9.84, 10.43, 9.81, 8.18, 8.18, 8.59, 9.06, 9.36, 9.89, 9.89, 10.63, 11.03, 10.73, 11.42, 11.16, 9.17, 6.3, 6.67, 8.49, 8.87, 8.45, 8.57, 10.11, 11.06, 11.26, 11.28, 11.64, 10.81, 8.15, -0.0, -6.9, -3.36, -0.0, -0.0, 10.73, 10.73, -0.0, -0.0, -0.0, 1.18, 1.11, -0.0, -0.0, -0.0, -0.0, 1.13, 2.32, 3.73, 1.29, -1.29, -2.4, 13.75, 14.18, 14.18, 14.18, 14.31, 13.81, 14.23, 13.59, 12.51, 12.9, 11.16, 10.99, 9.86, 8.93, 9.67, 9.3, 7.27, 7.26, 7.59, 5.7, 6.21, 7.54, 9.42, 9.08, 8.24, 8.15, 8.23, 8.55, 8.58, 8.49, 6.16, 6.4, 6.97, 7.06, 1.95, 0.0, 0.0, 1.58, 3.8, 5.36, 8.8, 11.62, 10.37, 7.58, 8.51, 9.01, 9.91, 10.41, 9.67, 8.18, 8.18, 8.59, 8.3, 9.17, 9.48, 10.22, 10.63, 11.03, 11.03, 11.42, 11.42, 10.62, 7.96, 6.67, 6.53, 6.79, 7.25, 8.05, 9.39, 10.92, 12.63, 13.23, 12.42, 11.41, 9.76, 4.1, -4.65, -6.9, -3.36, -0.0, -0.0, 10.73, 10.73, -0.0, -0.0, -0.0, 1.18, 1.11, -0.0, -0.0, -0.0, -0.0, 1.13, 2.32, 3.73, 1.29, -1.29, -2.4, 13.15, 13.56, 13.81, 13.19, 13.48, 13.48, 13.29, 13.29, 12.65, 11.9, 10.41, 8.12, 9.3, 9.67, 8.93, 8.58, 7.9, 7.9, 7.9, 7.51, 7.15, 8.22, 9.08, 8.53, 8.85, 7.81, 7.47, 7.47, 6.4, 5.69, 5.4, 5.6, 6.21, 5.86, 6.36, 6.01, 0.0, 0.0, 2.28, 5.7, 11.62, 9.8, 7.82, 8.0, 10.12, 10.35, 11.83, 10.17, 8.05, 7.9, 8.59, 8.59, 8.72, 8.72, 9.23, 10.3, 11.03, 11.03, 11.42, 11.42, 11.16, 9.17, 6.67, 5.8, 5.8, 6.52, 7.36, 8.31, 9.82, 12.29, 13.11, 14.47, 13.78, 10.99, 7.19, -0.0, -2.45, -8.58, -6.2, -0.0, -0.0, -0.0, -3.53, -1.69, -0.0, -0.0, -0.0, -0.0, -0.0, -0.0, -0.0, 1.3, 2.4, 3.85, 4.1, 1.43, -1.29, -2.63, 13.15, 12.79, 13.19, 12.51, 12.9, 12.27, 13.03, 13.03, 12.65, 11.88, 10.04, 8.47, 10.24, 9.3, 8.94, 8.49, 8.93, 8.53, 8.53, 7.9, 7.9, 8.58, 8.94, 8.22, 7.59, 7.9, 7.27, 6.3, 4.66, 3.25, 4.15, 4.81, 4.81, 5.32, 4.4, 4.2, 5.46, 7.9, 9.67, 10.47, 8.53, 9.66, 8.6, 9.43, 10.7, 10.15, 9.49, 7.1, 7.51, 8.3, 8.09, 8.72, 8.72, 9.26, 9.26, 10.37, 10.79, 11.16, 11.16, 11.16, 10.12, 7.43, 5.25, 4.81, 5.73, 6.4, 7.59, 8.58, 10.04, 11.88, 13.59, 14.1, 13.74, 10.77, 2.37, -5.4, -5.4, -8.05, -7.0, -3.25, -0.0, -0.0, -1.64, -1.39, -0.0, -0.0, -0.0, -0.0, -0.0, -0.0, -0.0, 1.47, 2.63, 3.73, 4.1, 1.43, -1.33, -2.63, 12.79, 12.79, 12.51, 12.51, 12.27, 12.27, 12.65, 13.03, 12.65, 11.35, 9.89, 8.79, 9.86, 9.48, 9.1, 9.46, 9.46, 9.27, 8.53, 8.53, 8.85, 7.9, 8.58, 9.3, 8.24, 7.9, 5.75, 3.53, 3.53, 3.11, 2.95, 3.82, 4.32, 3.97, 3.92, 4.4, 5.54, 8.3, 9.39, 7.58, 8.6, 8.35, 7.82, 8.23, 9.17, 8.02, 7.54, 7.82, 7.93, 8.72, 8.72, 8.72, 8.85, 9.26, 10.01, 10.37, 10.37, 10.73, 10.73, 10.47, 7.96, 4.65, 4.98, 5.02, 5.62, 6.6, 7.59, 9.11, 9.89, 10.75, 12.01, 14.29, 14.62, 13.28, -6.2, -10.0, -8.85, -8.85, -11.44, -5.15, -1.91, -1.71, -1.44, -1.28, -1.16, -0.0, -0.0, -0.0, -0.0, -0.0, 1.51, 1.38, 2.54, 4.1, 4.1, 1.43, -0.0, -1.33, 12.79, 12.79, 12.13, 12.9, 12.27, 12.27, 12.65, 12.65, 12.65, 11.88, 10.35, 8.42, 9.48, 9.6, 9.7, 9.7, 8.93, 9.42, 8.53, 8.01, 8.85, 8.53, 8.38, 8.1, 7.24, 7.24, 4.32, 3.53, 3.07, 4.4, 4.2, 4.2, 3.99, 4.9, 6.0, 6.9, 7.96, 10.43, 10.46, 6.97, 6.66, 6.95, 6.72, 7.82, 8.32, 7.82, 8.32, 8.32, 8.37, 8.85, 8.53, 8.85, 9.69, 10.01, 10.37, 10.03, 10.03, 10.03, 9.97, 8.38, 4.99, 3.23, 4.04, 5.06, 5.79, 7.67, 7.59, 8.31, 9.39, 10.31, 10.27, 12.01, 12.96, 11.73, -8.4, -15.18, -12.58, -11.2, -9.66, -7.24, -3.82, -3.32, -2.93, -2.52, -2.28, -2.16, -1.13, -0.0, -0.0, -0.0, -0.0, 1.33, 3.85, 5.08, 3.96, 1.29, -0.0, -0.0, 12.79, 12.79, 12.5, 12.9, 12.27, 12.27, 12.27, 12.65, 12.27, 11.88, 10.35, 8.43, 9.38, 9.6, 10.8, 9.3, 9.27, 9.77, 8.85, 8.85, 9.17, 10.12, 10.43, 9.09, 7.82, 7.59, 4.81, 2.35, 5.8, 6.24, 6.7, 3.3, 3.11, 3.45, 4.32, 7.13, 9.5, 8.87, 7.69, 4.24, 5.02, 5.27, 6.51, 7.44, 8.85, 8.67, 9.17, 9.36, 8.02, 8.85, 8.85, 9.34, 10.01, 10.41, 10.12, 9.64, 9.64, 9.17, 8.67, 6.21, 3.44, 3.25, 4.16, 5.06, 6.27, 8.11, 9.35, 9.27, 9.24, 10.43, 11.33, 11.76, 12.57, 12.01, -0.0, -14.13, -14.75, -12.52, -11.91, -11.03, -7.54, -5.2, -4.58, -3.92, -2.42, -2.37, -2.81, -1.56, -0.0, -0.0, -0.0, 2.54, 4.24, 5.27, 3.96, 1.29, -0.0, -0.0, 12.39, 12.79, 12.5, 12.5, 12.27, 12.27, 12.65, 12.65, 12.27, 11.5, 9.58, 8.43, 9.2, 9.09, 9.77, 9.09, 9.82, 9.96, 8.3, 8.59, 10.3, 11.16, 10.47, 9.77, 10.75, 9.12, 5.81, 5.98, 9.22, 9.48, 4.48, 1.98, 3.44, 3.96, 5.43, 8.24, 9.17, 7.36, 5.77, 4.58, 5.11, 6.2, 8.53, 10.19, 11.38, 10.12, 8.85, 8.91, 8.38, 8.83, 8.64, 9.66, 10.01, 10.12, 9.77, 8.85, 8.32, 8.32, 6.7, 3.96, 2.54, 3.17, 4.04, 5.02, 7.15, 8.7, 9.81, 10.02, 10.75, 11.69, 12.56, 13.59, 12.89, 9.39, -0.0, -6.8, -14.75, -13.86, -12.52, -14.3, -15.65, -10.35, -8.73, -6.45, -3.32, -1.66, -1.58, -3.58, -3.36, -0.0, -0.0, 1.38, 2.91, 4.24, 2.91, 1.33, 1.21, 1.33, 12.39, 12.79, 12.13, 12.5, 12.9, 12.27, 12.65, 13.19, 13.02, 11.6, 10.4, 10.16, 11.12, 9.96, 10.19, 10.19, 9.96, 9.48, 7.44, 7.44, 9.48, 10.73, 9.8, 11.44, 10.12, 7.9, 4.4, 8.31, 11.06, 8.94, 5.15, 2.5, 4.81, 6.2, 8.15, 8.82, 7.9, 5.0, 6.58, 6.24, 6.43, 7.82, 9.6, 8.15, 8.22, 7.9, 8.24, 8.31, 8.58, 9.32, 10.09, 9.42, 9.42, 8.53, 8.02, 7.14, 7.14, 6.45, 4.32, 3.25, 2.72, 3.36, 4.1, 5.46, 7.1, 9.27, 11.18, 11.91, 12.52, 12.99, 13.39, 13.43, 11.87, -0.0, -0.0, -0.0, 14.75, -13.19, -11.53, -11.38, -6.14, -14.03, -8.58, -5.98, -0.0, 1.71, 1.61, -1.83, -4.4, -2.82, -0.0, -0.0, 1.38, 3.01, 2.72, 1.38, 1.38, 1.33, 12.39, 12.39, 12.13, 12.13, 12.9, 12.9, 13.19, 13.19, 13.02, 11.8, 11.2, 11.6, 10.55, 11.72, 12.39, 11.64, 10.99, 9.44, 7.59, 6.9, 9.17, 9.17, 9.8, 10.12, 11.44, 9.3, 6.64, 6.44, 8.85, 7.36, 7.59, 6.14, 8.05, 8.66, 8.53, 7.9, 7.59, 5.46, 7.44, 9.17, 8.61, 8.67, 8.64, 7.97, 8.03, 7.9, 8.22, 8.07, 8.3, 9.89, 10.37, 10.47, 9.48, 7.19, 6.21, 5.98, 5.2, 4.72, 3.06, 1.9, 3.28, 4.04, 4.66, 5.46, 7.5, 9.73, 11.38, 12.71, 12.36, 12.62, 12.39, 10.91, 4.52, -0.0, 14.3, 14.3, 15.2, -0.0, -0.0, 2.72, 5.86, 7.4, -0.0, 2.6, 3.61, 5.21, 5.45, -0.0, -5.54, -4.4, -1.5, -0.0, -0.0, 1.48, 1.53, 1.53, -0.0, 1.48, 12.39, 12.39, 12.13, 12.51, 12.9, 12.9, 13.19, 13.19, 13.02, 12.21, 11.8, 12.39, 12.87, 12.66, 13.39, 12.79, 12.73, 11.06, 10.18, 12.01, 14.51, 13.39, 13.82, 12.0, 11.52, 9.17, 7.27, 5.29, 7.78, 9.8, 10.37, 9.17, 7.73, 7.9, 8.49, 9.27, 8.22, 8.22, 8.53, 10.36, 10.12, 10.02, 8.69, 8.49, 8.15, 7.68, 7.59, 6.86, 7.9, 9.34, 9.59, 10.12, 7.59, 3.42, 3.32, 4.47, 4.47, 2.63, -0.0, 0.81, 3.32, 4.19, 5.02, 6.24, 7.82, 8.83, 9.81, 11.36, 11.06, 9.84, 8.85, 8.1, 14.3, 0.0, 0.0, 0.0, 0.0, -0.0, 2.45, 4.24, 5.9, 7.82, 7.71, 6.53, 6.24, 6.7, 6.77, 1.76, -5.95, -6.5, -3.07, -1.71, -0.0, 1.83, 1.66, -0.0, -0.0, -0.0, 12.39, 12.39, 12.79, 12.51, 13.48, 13.48, 13.19, 13.19, 13.02, 12.21, 12.21, 12.39, 13.7, 13.28, 12.45, 11.62, 11.2, 12.9, 13.1, 14.13, 14.36, 14.39, 14.3, 14.39, 11.99, 10.12, 9.77, 6.35, 9.09, 9.2, 9.6, 9.46, 9.46, 8.34, 9.1, 8.99, 9.03, 10.35, 9.88, 10.59, 10.94, 10.59, 9.53, 9.09, 8.37, 6.64, 6.87, 5.95, 6.5, 7.27, 7.51, 8.14, 5.34, 1.6, 1.68, 2.72, 4.67, 4.0, -1.08, -0.0, 3.33, 4.85, 5.18, 6.24, 6.66, 7.65, 7.7, 6.1, 5.52, 4.7, 5.81, 8.94, 9.17, 0.0, 0.0, 0.0, 0.0, 3.68, 3.96, 5.72, 7.2, 8.16, 9.25, 8.4, 7.51, 8.1, 6.16, -0.0, -6.7, -7.59, -6.7, -4.8, -0.0, -0.0, -0.0, -0.0, -0.0, -0.0, 12.39, 12.39, 12.79, 13.19, 13.48, 13.48, 13.7, 12.79, 13.02, 12.62, 12.62, 13.44, 13.7, 14.11, 14.53, 14.66, 13.7, 12.72, 11.92, 12.33, 11.64, 11.99, 12.72, 12.85, 12.94, 12.6, 12.72, 12.38, 11.45, 9.33, 10.28, 10.79, 10.62, 10.21, 9.4, 9.33, 9.55, 9.77, 9.67, 10.04, 10.41, 10.41, 10.04, 8.23, 7.56, 6.3, 4.6, 5.32, 5.54, 5.92, 6.09, 5.6, 2.85, 0.74, 1.1, 2.25, 5.71, 6.84, -0.0, -1.71, 2.5, 5.18, 5.15, 4.38, 4.55, 5.04, 5.35, 4.9, 5.07, 6.94, 6.79, 8.0, 10.75, 0.0, 0.0, 9.8, 8.66, 7.21, 7.16, 7.84, 7.93, 9.49, 9.73, 9.48, 7.78, 8.78, 3.93, -4.65, -7.59, -8.58, -9.54, -9.2, -0.0, -0.0, 1.98, -0.0, -0.0, -0.0, 12.98, 12.03, 12.39, 12.79, 13.48, 13.07, 13.28, 12.79, 13.02, 13.02, 13.02, 13.44, 13.86, 14.11, 15.41, 15.53, 15.41, 14.42, 13.81, 13.15, 12.42, 12.79, 13.99, 14.99, 15.39, 15.39, 14.11, 14.11, 13.67, 12.81, 11.49, 11.4, 11.61, 10.18, 9.75, 9.33, 8.58, 8.72, 8.72, 8.58, 9.67, 9.77, 9.3, 7.9, 6.3, 4.88, 4.6, 4.88, 5.32, 4.8, 4.54, 3.34, 1.33, -0.0, 1.29, 2.22, 5.92, 8.05, 3.47, -0.86, -0.0, 3.85, 3.76, 3.69, 2.64, 1.59, 2.14, 2.94, 6.75, 8.58, 9.6, 7.4, 10.43, 10.8, 9.08, 9.8, 10.11, 9.66, 9.92, 9.77, 10.01, 10.22, 10.19, 12.18, 8.85, 7.44, 2.02, -2.72, -6.2, -7.59, -9.83, -10.28, -0.0, 2.82, 3.98, 1.64, -0.0, -0.0, 12.74, 12.74, 12.98, 13.39, 13.07, 13.07, 13.28, 12.79, 13.02, 13.02, 13.02, 13.86, 13.86, 14.28, 15.53, 15.96, 15.84, 15.84, 15.07, 14.65, 13.59, 13.59, 14.84, 15.41, 15.78, 16.27, 16.03, 15.58, 15.15, 14.75, 13.86, 12.52, 12.07, 10.62, 9.89, 9.46, 9.2, 7.96, 9.3, 9.2, 9.8, 10.4, 9.6, 7.59, 6.01, 5.21, 4.66, 5.72, 4.4, 4.88, 4.6, 3.61, 3.45, 2.33, 1.26, 2.28, 3.61, 6.57, 5.72, 2.45, 0.89, 1.28, 2.37, 2.24, 2.32, 1.11, 1.08, 3.32, 7.28, 9.77, 9.92, 10.66, 7.32, 7.13, 9.24, 11.48, 12.96, 12.33, 12.09, 12.22, 12.05, 11.97, 11.02, 11.55, 10.8, 8.05, 3.81, -0.0, -0.0, -0.0, -0.0, -0.0, 3.53, 5.75, 5.0, 1.28, 1.16, 1.16, 12.74, 12.98, 12.98, 13.57, 13.07, 13.07, 13.28, 13.28, 13.02, 13.02, 13.86, 13.86, 13.86, 14.28, 15.09, 15.53, 15.96, 16.66, 16.48, 15.49, 15.07, 15.07, 15.27, 16.22, 16.27, 16.47, 16.54, 16.09, 15.65, 15.2, 15.2, 15.15, 13.86, 11.62, 10.18, 8.48, 8.99, 8.8, 10.0, 10.18, 9.63, 9.6, 8.93, 6.95, 6.01, 5.21, 4.66, 4.88, 5.72, 5.46, 5.46, 5.46, 6.01, 4.96, 3.35, 2.33, 2.46, 3.39, 4.65, 5.64, 4.25, 2.95, 1.52, 1.33, 1.28, -0.0, 0.77, 3.41, 8.16, 10.77, 10.12, 9.74, 8.99, 8.94, 11.13, 13.37, 14.42, 14.2, 13.63, 13.76, 13.71, 14.13, 13.19, 11.6, 8.93, 6.2, 3.56, 5.28, 6.0, 5.8, 6.44, 4.8, 5.54, 3.92, 1.18, 0.97, 1.01, 1.01, 13.32, 12.98, 13.39, 12.98, 12.66, 13.07, 13.28, 13.7, 13.44, 13.44, 13.86, 13.86, 14.28, 14.28, 14.7, 15.09, 15.39, 16.22, 16.48, 15.91, 15.49, 15.27, 15.78, 16.01, 16.09, 16.09, 16.04, 16.04, 15.87, 16.31, 16.76, 16.93, 16.04, 14.3, 8.89, 8.56, 8.58, 9.6, 9.55, 9.55, 9.6, 7.28, 6.95, 5.53, 6.01, 4.88, 5.1, 5.98, 6.3, 6.01, 6.87, 7.21, 7.21, 6.64, 4.66, 3.3, 3.87, 4.6, 7.15, 8.22, 7.9, 6.42, 1.93, -0.0, -0.0, -0.0, -0.0, 2.72, 7.13, 11.13, 10.69, 8.97, 8.4, 10.36, 12.78, 14.2, 15.5, 15.5, 15.39, 14.13, 12.76, 12.65, 12.27, 10.43, 9.17, 7.65, 5.77, 7.19, 8.05, 8.05, 7.24, 7.27, 5.92, 3.34, 2.28, 1.92, 2.0, 2.0, 13.32, 13.44, 13.39, 12.79, 12.66, 12.66, 13.28, 13.44, 13.86, 13.86, 13.86, 14.28, 14.28, 14.28, 14.28, 14.66, 15.39, 15.71, 15.49, 15.49, 15.71, 15.99, 15.65, 15.2, 15.58, 15.83, 15.96, 15.96, 15.96, 16.7, 17.1, 17.79, 17.81, 16.09, 12.47, 9.16, 8.37, 9.75, 9.2, 8.82, 8.43, 7.33, 6.32, 6.64, 6.3, 6.58, 6.58, 6.58, 6.95, 7.21, 7.56, 8.18, 8.18, 6.95, 5.46, 3.87, 5.46, 5.7, 7.59, 8.59, 8.59, 5.95, 3.82, 1.93, -0.0, -0.0, -0.0, 1.64, 4.8, 10.36, 12.65, 10.76, 11.83, 13.74, 14.18, 15.01, 15.82, 15.86, 15.02, 12.56, 10.84, 10.54, 10.3, 8.67, 8.1, 8.1, 8.1, 7.43, 8.38, 8.66, 8.91, 7.51, 4.72, 3.06, 3.06, 3.21, 3.82, 3.82, 13.44, 12.98, 12.98, 13.07, 12.66, 12.87, 13.28, 13.44, 13.86, 13.86, 13.86, 14.28, 14.7, 14.7, 14.66, 16.58, 14.13, 14.84, 14.84, 14.84, 15.55, 16.09, 15.65, 16.54, 15.2, 16.54, 13.75, 16.99, 17.43, 16.09, 17.43, 17.88, 17.88, 17.43, 15.65, 12.52, 9.79, 9.24, 9.6, 10.6, 9.2, 8.72, 8.55, 7.56, 7.9, 7.9, 7.56, 7.56, 7.21, 7.21, 7.56, 7.56, 7.56, 6.3, 5.46, 5.7, 6.14, 6.87, 7.9, 8.49, 6.87, 5.95, 4.6, 3.14, 1.04, -0.0, -0.0, 2.33, 6.4, 10.24, 10.94, 12.52, 18.38, 19.51, 17.84, 16.29, 15.67, 15.29, 14.51, 13.58, 11.95, 11.34, 10.73, 8.85, 9.17, 8.61, 8.85, 7.72, 8.61, 8.67, 9.21, 7.44, 4.48, 3.68, 4.64, 4.81, 5.2, 5.2, 13.44, 12.98, 12.98, 12.66, 12.66, 12.87, 13.28, 13.44, 13.86, 13.86, 13.86, 14.28, 14.7, 14.7, 15.18, 14.75, 14.23, 13.99, 14.38, 14.75, 16.33, 14.79, 15.07, 16.02, 15.49, 14.79, 15.2, 14.71, 15.77, 15.77, 16.7, 17.1, 17.1, 17.35, 16.9, 15.2, 12.96, 11.62, 10.24, 8.38, 8.71, 8.97, 8.97, 8.76, 8.12, 10.0, 8.93, 8.55, 8.18, 7.81, 7.81, 7.21, 6.64, 6.3, 5.36, 6.11, 7.59, 6.95, 8.12, 8.15, 7.27, 6.42, 4.4, 2.7, 0.85, -0.0, 1.02, 4.8, 6.69, 9.97, 11.99, 14.94, 22.19, 23.21, 18.75, 16.86, 16.09, 15.68, 13.16, 12.65, 12.89, 13.42, 11.8, 9.97, 9.02, 8.22, 7.59, 8.07, 8.22, 8.22, 8.54, 7.69, 5.18, 4.47, 5.72, 6.48, 6.67, 6.67, 13.44, 12.98, 12.98, 12.66, 12.66, 12.87, 12.87, 13.44, 13.86, 14.28, 13.86, 14.28, 14.7, 15.09, 15.18, 15.18, 14.51, 13.99, 12.3, 14.23, 14.75, 13.23, 13.76, 14.39, 15.46, 15.19, 14.39, 15.68, 16.09, 16.51, 16.96, 16.91, 16.91, 17.2, 16.71, 16.27, 14.51, 12.91, 11.57, 10.25, 9.26, 9.58, 9.58, 9.4, 8.76, 9.86, 8.8, 8.18, 8.55, 8.18, 6.98, 6.64, 6.64, 5.46, 6.58, 6.4, 7.27, 7.27, 8.24, 6.95, 6.95, 5.46, 4.4, 2.7, 0.85, 1.02, 3.82, 5.64, 7.36, 9.52, 11.6, 14.69, 21.41, 21.24, 17.81, 16.58, 16.39, 16.12, 14.79, 14.33, 14.33, 13.81, 12.16, 10.63, 9.48, 8.24, 7.95, 6.86, 7.14, 7.36, 6.7, 6.96, 6.31, 5.51, 6.7, 7.24, 7.78, 7.78, 13.44, 12.98, 13.15, 12.66, 12.87, 12.87, 12.87, 13.44, 13.86, 14.28, 14.28, 14.28, 14.28, 15.18, 15.18, 15.43, 14.95, 14.4, 14.31, 15.69, 15.52, 14.46, 14.39, 15.12, 16.12, 16.96, 16.91, 16.05, 16.05, 16.48, 16.91, 16.91, 16.91, 17.2, 16.48, 16.48, 15.18, 13.67, 12.35, 11.02, 10.14, 9.54, 9.11, 9.33, 9.49, 8.8, 9.86, 8.8, 7.81, 7.33, 6.32, 6.01, 6.01, 6.01, 6.3, 6.58, 7.06, 7.59, 8.93, 6.95, 5.2, 5.7, 4.4, 2.7, 1.93, 3.47, 3.96, 4.72, 5.98, 7.51, 9.48, 12.22, 17.73, 19.73, 8.53, 11.9, 16.69, 17.92, 17.28, 15.53, 14.69, 13.59, 11.63, 9.77, 8.72, 8.2, 7.95, 7.69, 8.21, 6.67, 6.24, 7.24, 8.01, 7.24, 7.82, 8.22, 8.22, 8.22, 12.98, 12.98, 13.15, 12.66, 12.87, 12.87, 13.28, 13.44, 13.86, 14.28, 14.28, 14.28, 15.09, 15.18, 15.18, 15.43, 14.9, 14.4, 14.84, 16.15, 16.12, 15.27, 14.56, 14.66, 16.31, 17.2, 17.64, 17.2, 16.76, 15.87, 16.31, 16.31, 16.31, 16.31, 16.31, 16.31, 15.87, 14.55, 12.79, 11.28, 10.41, 9.97, 9.33, 8.91, 9.08, 8.8, 10.68, 8.4, 7.44, 6.64, 6.01, 6.3, 6.3, 6.01, 6.64, 6.3, 6.31, 7.9, 9.3, 6.32, 3.7, 3.82, 4.25, 3.65, 2.83, 3.6, 3.73, 4.54, 5.0, 5.35, 7.51, 10.17, 16.71, 8.43, 7.27, 8.93, 13.47, 16.35, 17.43, 17.43, 14.56, 11.8, 9.39, 8.28, 7.71, 7.66, 8.18, 8.18, 8.58, 8.59, 7.51, 7.73, 8.53, 8.93, 8.22, 8.64, 7.78, 7.78, 12.98, 12.98, 13.15, 12.66, 12.87, 12.87, 12.87, 13.44, 13.86, 14.28, 14.28, 15.09, 15.09, 15.18, 15.18, 15.39, 15.34, 14.47, 15.27, 15.27, 15.69, 16.12, 15.78, 14.51, 14.95, 16.27, 17.2, 17.2, 17.37, 16.93, 16.04, 16.04, 16.04, 16.04, 15.87, 15.87, 15.87, 14.99, 13.23, 11.28, 9.97, 9.54, 9.75, 9.66, 8.4, 8.14, 9.86, 8.18, 8.18, 7.56, 7.9, 7.56, 7.21, 6.32, 6.32, 6.01, 5.89, 6.83, 8.59, 4.8, 1.2, 2.57, 4.4, 4.4, 3.65, 5.15, 4.81, 5.11, 5.21, 5.9, 7.27, 13.51, 19.28, 15.04, 14.37, 14.13, 13.59, 9.8, -0.0, -0.0, 5.09, 5.31, 4.87, 5.31, 6.85, 7.68, 8.31, 8.87, 8.45, 9.24, 8.72, 8.9, 9.57, 9.34, 8.64, 8.64, 7.36, 7.36, 12.98, 12.98, 13.15, 12.66, 12.66, 12.87, 13.02, 13.44, 13.86, 14.28, 14.66, 14.66, 15.09, 15.09, 15.18, 15.39, 15.34, 14.9, 14.84, 15.27, 15.27, 16.27, 16.66, 16.27, 15.39, 15.58, 16.92, 17.37, 17.37, 16.93, 16.93, 16.48, 15.59, 15.59, 16.03, 15.83, 15.87, 15.43, 14.11, 11.64, 9.92, 9.49, 9.49, 9.66, 9.24, 8.82, 8.14, 8.25, 8.12, 8.52, 7.72, 8.93, 7.44, 6.98, 6.32, 6.32, 5.72, 5.1, 6.01, 3.87, 3.11, 2.98, 4.34, 4.4, 4.62, 4.74, 4.65, 5.6, 6.2, 8.72, 10.5, 11.92, 15.38, 17.14, 15.1, 14.54, 7.14, -15.19, -12.27, -10.8, -10.43, -2.98, 2.15, 4.37, 6.9, 7.62, 8.21, 8.3, 8.95, 9.73, 10.75, 10.18, 9.84, 10.12, 8.64, 7.48, 6.71, 6.71, 12.98, 12.98, 13.15, 12.66, 12.87, 12.87, 12.87, 13.44, 13.86, 13.86, 14.66, 14.66, 15.09, 15.09, 15.18, 15.39, 15.34, 15.34, 14.99, 14.99, 14.99, 15.78, 16.66, 16.71, 16.47, 16.03, 16.03, 16.92, 17.37, 17.37, 16.93, 16.92, 16.47, 16.47, 16.03, 16.03, 16.03, 15.83, 15.39, 12.94, 10.78, 9.92, 9.49, 9.24, 9.66, 9.66, 9.24, 8.48, 8.34, 8.76, 8.4, 8.24, 8.18, 6.95, 6.32, 6.32, 6.01, 5.03, 4.44, 4.4, 4.88, 5.7, 4.0, 3.49, 4.6, 5.6, 5.4, 6.44, 7.59, 8.55, 9.6, 10.99, 11.42, 12.61, 16.88, 14.31, 10.81, -18.78, -16.09, -12.52, -13.01, -6.8, -0.0, 5.31, 6.53, 8.78, 8.59, 8.59, 9.06, 9.8, 10.75, 11.15, 10.82, 9.96, 7.9, 6.98, 6.71, 6.71, 13.15, 13.15, 13.15, 12.66, 12.87, 12.87, 12.87, 13.02, 13.44, 13.86, 14.66, 14.66, 15.09, 14.95, 15.39, 15.39, 15.34, 14.99, 14.99, 14.99, 14.99, 15.34, 15.83, 16.27, 16.47, 16.47, 16.03, 16.47, 16.92, 16.92, 16.92, 16.92, 16.92, 16.92, 16.47, 16.47, 16.27, 16.22, 16.27, 15.09, 13.37, 11.64, 10.08, 9.24, 9.66, 9.66, 9.75, 8.91, 8.48, 8.25, 8.55, 8.43, 8.06, 8.06, 7.87, 6.01, 6.32, 5.03, 4.03, 4.71, 6.95, 6.18, 5.32, 3.32, 5.32, 4.99, 5.64, 7.06, 7.27, 8.12, 9.58, 9.97, 10.82, 11.04, 12.34, 17.22, 16.94, 20.12, -15.61, -11.62, -11.2, -0.0, 3.1, 5.36, 6.94, 8.18, 9.67, 9.67, 10.22, 10.22, 10.18, 11.49, 12.22, 10.22, 8.76, 7.44, 6.71, 6.71, 13.15, 13.15, 13.15, 12.66, 12.87, 12.87, 13.02, 13.02, 13.44, 13.44, 14.23, 14.66, 14.66, 14.95, 14.95, 14.95, 14.99, 14.99, 14.99, 14.99, 15.34, 15.34, 15.39, 15.58, 16.03, 16.03, 16.03, 16.03, 16.47, 16.47, 16.47, 16.47, 16.92, 16.92, 16.92, 16.47, 16.22, 16.66, 16.66, 15.41, 14.23, 12.04, 10.38, 9.24, 9.66, 9.24, 9.66, 9.33, 8.82, 8.55, 8.05, 7.76, 7.68, 8.03, 8.38, 7.4, 6.32, 5.31, 4.68, 5.36, 6.32, 5.89, 5.46, 4.56, 5.63, 6.2, 7.9, 7.81, 7.87, 8.82, 9.58, 10.8, 10.41, 9.48, 11.96, 15.07, 19.72, 17.94, 15.61, 12.71, 8.38, 8.2, 7.97, 8.05, 7.73, 8.85, 9.89, 10.99, 10.99, 10.58, 9.8, 10.87, 12.16, 10.78, 9.8, 8.76, 7.93, 7.93, 12.87, 12.87, 12.66, 12.66, 12.87, 12.87, 13.02, 13.44, 13.44, 13.44, 14.23, 14.66, 15.09, 15.09, 14.99, 14.56, 14.56, 14.56, 14.56, 14.9, 15.34, 15.39, 15.39, 15.58, 15.58, 15.58, 15.58, 16.03, 16.47, 16.47, 16.47, 16.47, 16.47, 16.47, 16.46, 16.46, 16.22, 16.27, 16.27, 15.36, 14.53, 11.99, 10.4, 8.8, 7.96, 8.8, 10.08, 10.79, 9.67, 7.81, 7.76, 7.35, 6.95, 8.03, 8.38, 8.02, 7.59, 7.27, 6.11, 6.11, 6.32, 5.89, 5.63, 6.11, 7.27, 7.85, 8.22, 8.37, 8.54, 9.2, 9.58, 10.25, 10.41, 11.33, 13.02, 15.44, 17.43, 16.79, 16.79, 15.59, 13.51, 9.85, 10.75, 10.48, 9.96, 10.37, 10.79, 11.21, 11.07, 10.63, 10.63, 11.42, 11.26, 11.82, 10.75, 9.36, 8.21, 8.21, 12.87, 12.87, 12.87, 12.87, 12.87, 13.02, 13.02, 13.44, 13.44, 13.44, 13.8, 14.66, 14.66, 14.99, 15.41, 14.99, 14.56, 14.56, 14.95, 14.95, 15.39, 15.39, 15.58, 15.58, 15.58, 15.58, 15.14, 15.58, 16.09, 16.09, 16.09, 16.09, 16.09, 16.01, 16.46, 16.15, 15.69, 15.69, 15.52, 15.77, 14.39, 12.79, 10.94, 8.18, 6.59, 8.6, 10.8, 11.16, 10.02, 9.3, 8.73, 7.33, 7.31, 7.68, 8.03, 8.79, 8.47, 8.07, 7.59, 6.95, 6.32, 6.79, 6.45, 7.13, 6.64, 7.59, 7.27, 8.53, 7.21, 6.95, 7.9, 8.97, 11.97, 15.54, 15.39, 17.64, 16.66, 14.39, 15.58, 17.06, 16.01, 14.53, 13.59, 11.79, 12.08, 12.6, 12.17, 11.35, 10.94, 10.69, 11.72, 11.72, 12.27, 12.4, 11.5, 9.97, 8.78, 8.78, 11.99, 11.99, 12.39, 12.39, 12.87, 13.02, 13.02, 13.44, 13.44, 13.86, 14.23, 13.7, 14.56, 14.56, 14.99, 14.99, 14.99, 15.34, 15.39, 15.39, 15.39, 15.58, 15.58, 15.58, 15.58, 15.58, 15.14, 14.69, 15.2, 15.65, 16.09, 15.65, 15.65, 15.55, 15.99, 15.07, 15.49, 14.79, 15.11, 14.85, 13.76, 12.65, 10.79, 8.93, 7.67, 8.72, 10.99, 11.17, 11.17, 10.85, 9.81, 7.69, 7.69, 7.33, 8.06, 8.42, 8.47, 8.94, 8.07, 8.73, 7.64, 7.96, 7.58, 7.28, 6.87, 7.33, 6.95, 6.14, 6.42, 6.17, 5.72, 7.59, 10.79, 16.24, 19.41, 18.03, 17.68, 14.03, 12.79, 16.36, 18.01, 17.82, 16.02, 13.89, 14.65, 14.61, 12.35, 10.75, 10.52, 11.37, 11.99, 11.72, 11.88, 11.52, 11.68, 10.22, 9.06, 9.06, 12.21, 12.21, 12.21, 12.62, 12.62, 13.02, 13.02, 13.44, 13.44, 13.86, 14.23, 14.13, 14.13, 14.84, 14.84, 14.99, 14.99, 15.83, 15.83, 15.83, 15.83, 15.83, 15.58, 15.58, 15.58, 15.58, 15.14, 14.25, 15.99, 14.75, 15.65, 15.99, 15.99, 15.53, 15.18, 15.07, 14.39, 14.79, 14.79, 14.03, 13.76, 13.02, 11.53, 9.58, 8.82, 9.58, 11.38, 12.45, 12.17, 10.99, 9.03, 7.67, 7.67, 7.67, 7.81, 8.18, 8.55, 8.58, 8.58, 9.77, 9.6, 8.58, 7.2, 7.2, 7.76, 6.63, 6.44, 6.64, 7.27, 7.59, 6.95, 7.9, 10.19, 13.39, 17.11, 19.23, 15.06, 11.55, 12.1, 14.33, 17.5, 17.81, 16.73, 15.44, 15.27, 11.7, 6.69, 8.93, 11.17, 11.92, 11.92, 11.26, 10.73, 11.29, 10.97, 9.87, 8.94, 8.94, 12.21, 12.21, 11.77, 12.62, 12.62, 12.62, 13.02, 13.44, 13.44, 13.86, 14.23, 14.13, 13.99, 13.99, 14.99, 14.99, 15.34, 14.99, 15.39, 15.83, 15.83, 15.83, 16.03, 15.58, 15.14, 15.14, 15.14, 14.25, 13.79, 15.53, 14.4, 15.27, 15.71, 15.61, 14.79, 15.07, 14.39, 14.79, 14.03, 14.03, 13.23, 13.39, 11.9, 10.35, 9.2, 10.4, 11.6, 12.62, 12.62, 10.4, 8.05, 7.67, 7.67, 7.67, 7.81, 8.6, 8.34, 8.72, 9.1, 9.77, 9.96, 7.6, 7.81, 6.55, 6.91, 6.18, 6.28, 6.01, 8.18, 8.58, 6.58, 7.59, 9.46, 11.57, 15.5, 20.55, 16.3, 12.52, 12.53, 14.64, 16.43, 16.43, 15.78, 15.84, 10.61, -0.0, -0.0, 11.7, 13.57, 12.3, 11.2, 10.04, 10.55, 9.8, 8.78, 9.06, 6.85, 6.85, 11.77, 11.77, 11.77, 12.21, 12.62, 12.62, 12.87, 13.28, 13.44, 13.86, 14.23, 14.56, 13.99, 13.99, 14.56, 14.99, 14.99, 14.99, 15.09, 15.83, 15.83, 16.27, 15.83, 16.03, 15.14, 15.14, 15.14, 14.69, 14.68, 14.47, 14.47, 14.84, 15.27, 15.18, 15.47, 15.47, 14.79, 13.97, 13.46, 12.56, 12.56, 13.23, 12.65, 10.79, 10.4, 10.4, 11.2, 12.39, 12.39, 10.8, 8.8, 8.4, 8.4, 8.4, 8.6, 8.6, 9.2, 9.2, 8.99, 9.96, 11.03, 8.43, 6.98, 7.33, 6.52, 6.01, 4.68, 4.46, 5.63, 5.29, 4.78, 5.2, 7.54, 10.02, 14.17, 19.52, 18.2, 16.79, 15.47, 15.49, 15.93, 15.43, 15.69, 12.01, -4.12, -7.8, -0.0, 15.78, 13.15, 11.2, 10.04, 10.41, 9.62, 7.54, 5.63, 7.59, 4.89, 4.89, 11.77, 11.77, 11.99, 11.99, 12.62, 12.62, 12.87, 13.28, 13.7, 13.86, 14.28, 14.56, 14.42, 13.99, 13.48, 14.11, 14.56, 14.56, 14.66, 15.39, 15.83, 15.83, 15.83, 16.03, 15.58, 15.14, 15.14, 14.69, 14.47, 15.12, 15.12, 15.11, 15.11, 15.08, 15.65, 15.65, 15.27, 10.3, 9.61, 10.76, 12.56, 12.87, 12.65, 11.99, 10.8, 10.79, 11.62, 12.45, 11.99, 11.6, 9.6, 9.2, 8.8, 8.8, 8.8, 8.6, 9.4, 9.4, 9.75, 10.79, 10.62, 10.4, 7.33, 7.81, 7.33, 5.59, 4.46, 4.71, 4.44, 4.56, 4.07, 5.77, 8.3, 10.02, 12.65, 14.7, 16.58, 16.01, 16.37, 15.59, 13.59, 13.65, 10.33, -0.0, -3.9, -0.0, 13.39, 13.28, 11.16, 9.96, 9.62, 8.53, 5.6, 1.55, -0.0, -0.0, 2.56, 2.56, 11.99, 11.99, 11.99, 11.99, 12.62, 12.62, 13.44, 13.28, 14.13, 14.13, 14.28, 14.66, 14.56, 13.48, 13.48, 14.11, 14.56, 14.56, 14.66, 15.09, 15.39, 15.83, 15.83, 15.83, 15.58, 15.14, 15.14, 14.69, 14.47, 14.9, 15.12, 15.11, 14.75, 14.75, 14.64, 15.2, 11.06, 6.35, 7.82, 9.66, 11.38, 12.87, 13.02, 11.99, 11.21, 10.16, 10.55, 11.85, 11.72, 11.33, 10.16, 8.99, 8.43, 8.43, 8.43, 8.8, 9.4, 9.75, 9.75, 10.62, 10.24, 9.77, 8.8, 6.55, 6.01, 6.64, 5.03, 6.01, 5.2, 3.32, 3.77, 5.14, 9.48, 11.35, 12.09, 11.63, 12.85, 14.93, 16.04, 17.51, 13.59, 11.06, 8.18, 2.81, 2.72, 6.2, 9.8, 9.48, 9.17, 9.84, 9.17, 6.21, -0.0, -1.61, -1.43, -1.48, -0.0, -0.0, 11.6, 11.6, 11.99, 11.99, 12.17, 12.62, 13.02, 13.28, 14.13, 14.13, 14.56, 14.66, 14.11, 13.89, 13.48, 13.7, 14.56, 14.56, 14.66, 15.09, 15.39, 15.39, 15.83, 15.83, 15.58, 15.14, 15.14, 14.68, 14.47, 14.9, 14.9, 15.12, 14.75, 14.4, 14.13, 14.68, 9.8, 7.28, 8.05, 10.6, 12.11, 12.7, 12.0, 10.99, 8.99, 9.38, 10.16, 10.94, 11.33, 10.79, 10.04, 9.3, 8.82, 8.43, 8.43, 8.63, 9.2, 9.85, 10.47, 10.0, 8.53, 8.53, 8.43, 6.01, 6.01, 6.64, 6.28, 6.01, 4.34, 3.21, 4.07, 5.76, 8.85, 12.87, 12.33, 9.8, 10.43, 13.82, 16.73, 17.4, 15.55, 12.01, 10.75, 8.87, 7.69, 8.05, 9.02, 10.18, 10.18, 9.48, 6.43, 1.77, -1.55, -3.14, -3.56, -1.83, -0.0, -0.0, 11.2, 11.2, 11.99, 11.99, 12.17, 12.62, 13.02, 13.44, 13.7, 14.13, 14.56, 13.89, 13.89, 13.89, 13.89, 13.48, 13.7, 14.56, 14.66, 15.09, 15.09, 15.39, 15.39, 15.83, 15.39, 15.14, 14.69, 14.68, 14.66, 14.66, 15.11, 14.75, 14.68, 14.23, 14.23, 14.55, 11.07, 9.62, 9.49, 11.06, 11.77, 12.7, 11.64, 9.66, 8.18, 8.93, 10.16, 10.94, 10.73, 9.76, 9.88, 9.52, 9.2, 8.43, 8.63, 8.63, 9.36, 9.66, 10.7, 8.49, 6.7, 6.92, 5.95, 5.44, 5.15, 6.32, 6.01, 4.83, 4.83, 4.07, 4.07, 5.92, 8.53, 10.92, 13.59, 13.07, 11.17, 13.39, 15.64, 15.7, 13.51, 12.57, 13.03, 11.38, 9.8, 10.43, 10.43, 10.73, 9.48, 5.11, 1.83, -1.83, -4.93, -5.6, -3.96, -3.96, -2.06, -0.0, 11.2, 11.2, 11.2, 11.58, 12.17, 12.62, 13.02, 13.44, 13.86, 14.13, 14.11, 13.89, 13.89, 13.89, 13.89, 13.48, 13.48, 13.7, 14.56, 14.66, 15.09, 15.39, 15.39, 15.43, 15.43, 14.99, 14.69, 14.68, 14.22, 14.3, 14.75, 14.75, 14.51, 14.31, 14.14, 14.58, 11.9, 10.12, 10.75, 11.36, 12.35, 13.02, 12.27, 9.53, 8.58, 10.04, 11.53, 10.77, 10.77, 10.94, 10.23, 9.89, 9.2, 9.03, 8.63, 8.63, 9.03, 10.08, 10.17, 7.42, 6.48, 6.08, 4.83, 5.86, 6.32, 7.33, 6.01, 5.89, 5.06, 4.71, 4.4, 5.06, 6.76, 8.83, 11.29, 13.59, 14.95, 14.22, 12.52, 11.5, 11.94, 12.71, 13.84, 14.65, 13.03, 11.53, 10.73, 9.48, 5.8, 2.06, -0.0, -3.96, -6.94, -6.44, -5.6, -5.4, -5.4, -2.06, 11.2, 11.2, 11.2, 11.58, 11.77, 12.17, 12.62, 13.44, 13.44, 13.7, 13.7, 13.48, 13.89, 13.89, 13.48, 13.48, 13.48, 13.7, 14.13, 14.56, 14.66, 14.66, 14.95, 15.43, 15.43, 15.43, 14.51, 14.25, 14.23, 14.3, 14.3, 14.68, 14.51, 14.55, 14.3, 13.99, 12.6, 10.73, 11.17, 12.09, 12.65, 12.65, 11.9, 10.41, 9.67, 10.99, 12.0, 12.35, 11.64, 11.9, 11.53, 10.73, 9.2, 8.63, 8.63, 8.63, 9.03, 9.77, 9.42, 8.31, 7.24, 6.08, 4.93, 4.4, 5.86, 6.01, 6.01, 5.21, 4.0, 5.06, 5.06, 4.2, 5.32, 6.16, 8.23, 11.02, 13.25, 16.48, 17.34, 13.91, 11.47, 13.71, 16.17, 16.22, 14.52, 10.37, 9.17, 6.67, 2.54, -2.54, -4.65, -6.44, -8.85, -10.01, -8.85, -6.7, -6.7, -6.7, 10.81, 10.81, 11.2, 11.2, 11.99, 11.77, 12.62, 13.02, 13.02, 13.28, 13.7, 13.48, 13.48, 13.48, 13.48, 13.48, 13.48, 13.7, 13.7, 14.13, 14.66, 14.66, 14.95, 14.99, 14.99, 14.99, 14.51, 14.07, 14.07, 13.79, 13.86, 13.86, 14.26, 14.3, 14.27, 13.32, 12.58, 11.58, 11.69, 12.27, 12.27, 12.79, 12.11, 10.94, 10.55, 11.16, 12.65, 12.65, 11.9, 12.11, 11.72, 10.35, 8.43, 8.24, 8.63, 8.63, 9.42, 9.77, 9.58, 8.73, 7.36, 6.08, 5.57, 5.7, 5.46, 5.21, 5.21, 4.2, 4.34, 4.83, 4.56, 4.34, 5.32, 5.06, 7.51, 7.93, 11.95, 15.82, 18.84, 18.65, 18.17, 18.75, 18.8, 17.76, 13.95, 6.9, 2.45, -0.0, -0.0, -5.8, -5.6, -7.51, -8.85, -10.01, -6.7, -6.7, -6.7, -6.7, 10.56, 10.56, 10.94, 10.94, 11.77, 11.77, 12.62, 12.62, 12.62, 12.79, 13.28, 13.48, 12.9, 12.9, 13.48, 13.48, 13.48, 13.7, 13.7, 14.13, 14.66, 14.66, 14.95, 14.99, 14.99, 14.99, 14.51, 14.07, 13.63, 13.63, 13.36, 13.41, 13.41, 13.86, 14.16, 12.89, 12.52, 11.99, 11.77, 11.99, 12.39, 12.39, 11.99, 10.55, 10.16, 11.33, 12.5, 12.5, 11.72, 10.94, 10.55, 9.77, 8.4, 8.05, 8.63, 8.63, 9.42, 9.2, 9.58, 8.82, 7.78, 7.1, 5.78, 5.4, 5.7, 5.46, 5.21, 5.46, 4.34, 4.96, 4.74, 4.0, 4.56, 6.31, 6.86, 7.82, 9.34, 13.57, 16.17, 18.65, 20.19, 20.74, 21.83, 19.41, 3.31, -5.64, -2.45, -0.0, -5.8, -9.17, -8.85, -8.85, -8.53, -8.85, -8.53, -6.7, -6.7, -6.7, 10.56, 10.56, 10.94, 11.38, 11.77, 11.77, 12.62, 12.62, 13.02, 12.79, 12.79, 12.9, 12.9, 13.48, 13.48, 13.48, 13.48, 13.48, 13.7, 14.13, 14.66, 14.66, 14.95, 14.99, 14.99, 14.99, 14.51, 14.07, 13.63, 13.19, 13.19, 13.23, 13.36, 13.25, 13.07, 12.82, 12.1, 12.38, 12.21, 11.99, 11.99, 12.45, 11.6, 10.16, 9.77, 10.55, 11.72, 11.72, 11.72, 10.55, 9.77, 8.99, 8.0, 8.4, 8.8, 9.03, 9.03, 9.2, 9.3, 8.82, 8.35, 7.72, 6.7, 5.64, 6.7, 6.14, 5.59, 5.2, 4.98, 4.98, 5.21, 4.74, 5.63, 6.77, 7.06, 7.65, 8.97, 10.43, 13.04, 14.22, 18.29, 22.47, 21.98, 10.39, -13.14, -13.91, -7.2, -7.19, -9.17, -10.41, -9.17, -8.53, -8.85, -8.53, -6.7, -5.2, -5.2, -5.2, 10.56, 10.56, 11.38, 11.38, 11.8, 12.21, 12.21, 12.62, 13.28, 13.28, 13.28, 13.07, 12.9, 13.48, 13.48, 13.48, 13.48, 13.48, 13.7, 13.7, 14.13, 14.66, 14.66, 14.99, 14.99, 14.99, 14.51, 14.07, 13.63, 13.63, 13.19, 12.79, 12.79, 12.63, 12.58, 12.3, 12.3, 12.3, 12.21, 11.6, 12.04, 12.04, 11.6, 10.16, 9.3, 10.55, 11.33, 11.33, 11.33, 10.55, 9.77, 8.6, 7.82, 8.4, 8.8, 8.43, 8.82, 8.93, 9.3, 9.3, 8.82, 8.35, 7.95, 6.4, 6.2, 6.42, 5.59, 4.94, 4.98, 4.98, 4.98, 5.9, 6.11, 6.95, 7.59, 7.9, 8.85, 9.8, 9.92, 12.33, 16.31, 19.89, 19.91, -0.0, -21.58, -20.75, -16.79, -11.16, -10.79, -9.17, -8.85, -5.6, -6.7, -6.7, -5.2, -4.48, -4.48, -4.48, 10.56, 10.56, 11.38, 11.38, 12.21, 12.21, 12.45, 12.87, 12.87, 13.28, 12.79, 12.5, 12.9, 12.9, 12.9, 13.48, 13.48, 13.48, 13.48, 13.7, 14.13, 14.66, 14.66, 14.95, 14.99, 14.99, 14.51, 14.07, 13.63, 13.63, 13.19, 12.75, 12.79, 12.14, 12.14, 12.14, 11.87, 11.76, 12.18, 12.04, 12.04, 12.04, 11.33, 10.55, 9.77, 10.8, 10.94, 10.94, 10.94, 10.16, 9.38, 8.6, 7.82, 8.21, 8.8, 8.43, 8.82, 8.93, 9.48, 9.48, 8.93, 8.82, 8.75, 6.4, 5.2, 5.7, 4.6, 4.0, 5.46, 6.17, 5.9, 5.9, 6.95, 6.95, 7.06, 7.9, 8.53, 8.67, 9.48, 10.25, 14.06, 18.6, 19.52, -0.0, -24.99, -22.79, -17.78, -13.01, -12.3, -5.4, -5.6, -5.6, -6.7, -5.2, -4.32, -1.98, -1.98, -1.98, 10.56, 10.56, 11.38, 11.8, 11.8, 11.99, 12.87, 12.87, 12.87, 12.87, 12.5, 12.5, 12.5, 12.9, 12.9, 12.9, 13.48, 13.48, 13.48, 13.28, 13.7, 14.23, 14.66, 14.95, 14.95, 14.95, 14.51, 14.07, 13.63, 13.63, 13.19, 13.19, 12.79, 12.35, 12.14, 11.71, 11.64, 11.76, 11.76, 11.62, 11.62, 11.62, 11.44, 11.03, 10.21, 11.03, 11.44, 11.44, 10.55, 9.77, 9.38, 8.99, 8.21, 7.82, 8.4, 8.8, 8.82, 8.55, 9.1, 9.1, 9.38, 8.93, 8.75, 5.4, 3.97, 4.8, 4.2, 4.2, 6.14, 6.4, 6.69, 6.4, 6.17, 6.17, 6.31, 6.59, 7.72, 8.07, 9.17, 9.48, 11.25, 16.17, 17.14, 8.48, -26.82, -25.03, -19.22, -12.96, -12.14, -10.04, -8.53, -8.22, -6.45, -2.71, -2.37, -0.0, -0.0, -0.0, 10.56, 10.56, 11.38, 11.8, 11.6, 11.99, 12.39, 12.87, 12.87, 12.5, 12.5, 12.5, 12.9, 12.9, 12.9, 12.9, 13.48, 13.48, 13.48, 13.48, 14.13, 14.23, 14.66, 14.95, 14.95, 14.51, 14.51, 14.07, 13.37, 12.94, 13.19, 13.19, 12.75, 12.35, 12.14, 11.64, 11.64, 11.64, 11.21, 11.62, 11.62, 11.62, 11.44, 11.03, 10.62, 11.44, 11.85, 11.44, 10.62, 9.8, 9.4, 8.99, 8.99, 8.58, 8.21, 8.8, 8.8, 8.99, 8.72, 9.1, 9.1, 9.1, 7.9, 5.4, 3.97, 4.36, 5.21, 4.98, 5.72, 6.11, 5.21, 5.21, 4.99, 5.95, 5.52, 6.15, 6.41, 7.26, 8.37, 9.17, 9.8, 12.24, 15.82, 14.03, -26.02, -26.9, -13.15, -12.58, -13.01, -12.71, -11.71, -10.04, -8.85, -3.14, -0.0, -0.0, -0.0, -0.0, 10.99, 10.99, 11.38, 11.6, 11.6, 11.99, 12.39, 12.39, 12.39, 12.5, 12.5, 12.5, 12.9, 12.9, 12.9, 12.9, 13.48, 13.48, 13.48, 13.48, 14.13, 14.13, 14.66, 14.95, 14.51, 14.51, 14.23, 13.8, 13.37, 13.37, 13.19, 13.19, 12.75, 12.35, 12.31, 11.64, 11.64, 11.64, 11.56, 11.21, 11.21, 11.21, 11.03, 11.03, 11.03, 11.2, 11.85, 11.44, 10.62, 9.6, 9.2, 8.8, 8.99, 8.17, 8.21, 8.21, 8.6, 8.6, 8.34, 8.72, 8.72, 8.72, 6.98, 5.2, 4.12, 4.72, 5.45, 4.78, 4.99, 5.21, 5.21, 4.98, 4.2, 4.99, 5.52, 5.75, 6.41, 7.26, 8.53, 9.17, 9.48, 9.48, 11.91, 14.54, -0.0, -20.79, -13.99, -11.87, -13.15, -13.59, -13.59, -13.01, -6.0, -0.0, -0.0, -0.0, -0.0, -0.0, 10.99, 10.99, 10.73, 11.12, 11.6, 11.6, 11.99, 12.39, 12.11, 12.5, 12.5, 12.9, 12.9, 12.9, 12.9, 12.9, 13.48, 13.48, 13.48, 13.99, 14.13, 14.13, 14.51, 14.51, 14.51, 14.51, 14.23, 13.8, 13.37, 13.37, 13.19, 13.19, 12.75, 12.75, 12.31, 11.88, 11.64, 11.13, 11.13, 10.79, 11.03, 11.03, 11.03, 10.62, 11.03, 11.2, 11.85, 11.44, 11.03, 10.0, 9.2, 8.8, 8.8, 8.17, 8.21, 8.21, 8.21, 8.34, 8.34, 8.34, 8.72, 8.37, 6.98, 5.43, 4.48, 5.2, 4.8, 4.18, 4.99, 4.78, 4.56, 4.56, 4.2, 3.99, 4.99, 5.95, 6.86, 7.72, 8.22, 8.32, 8.61, 8.61, 10.82, 13.36, -24.55, -20.75, -15.18, -11.71, -12.27, -13.28, -13.7, -11.9, -0.0, -0.0, -0.0, -0.0, -0.0, -0.0, 10.99, 10.99, 10.73, 11.12, 11.6, 11.6, 11.99, 12.39, 12.11, 12.5, 12.5, 12.9, 12.9, 12.9, 12.9, 12.9, 13.48, 13.48, 13.48, 13.99, 14.13, 14.13, 14.47, 14.51, 14.51, 14.51, 14.07, 14.07, 13.63, 13.19, 13.19, 12.75, 12.75, 12.75, 12.31, 11.88, 11.84, 11.13, 11.13, 10.62, 10.62, 10.62, 10.62, 10.62, 10.62, 10.62, 11.03, 11.03, 10.8, 10.0, 9.6, 9.2, 8.8, 8.58, 8.17, 7.82, 8.21, 7.96, 7.96, 8.8, 8.8, 8.37, 6.69, 5.92, 4.72, 4.9, 4.24, 3.92, 5.45, 5.46, 4.78, 4.99, 4.99, 4.36, 4.99, 5.95, 6.86, 7.42, 7.36, 7.65, 7.41, 8.85, 11.17, 4.91, -28.41, -20.72, -16.99, -12.96, -12.71, -12.39, -10.43, -3.58, -0.0, 2.02, -0.0, -0.0, -0.0, -0.0, 10.99, 10.99, 10.73, 10.73, 11.6, 11.6, 11.99, 11.99, 12.11, 12.11, 12.5, 12.5, 12.9, 12.9, 12.9, 13.48, 13.48, 13.48, 13.48, 14.42, 14.13, 14.13, 14.47, 14.47, 14.51, 14.07, 14.07, 14.07, 13.63, 13.19, 13.19, 12.91, 12.91, 12.31, 12.31, 11.84, 11.84, 11.13, 11.03, 10.6, 11.03, 11.03, 10.62, 10.62, 10.6, 10.6, 10.62, 10.4, 10.4, 10.0, 9.6, 9.2, 8.8, 8.8, 8.4, 8.17, 7.58, 7.58, 8.4, 8.4, 8.15, 8.0, 6.58, 5.69, 5.0, 4.72, 3.82, 4.54, 5.45, 5.21, 5.21, 4.99, 5.21, 5.21, 5.43, 5.21, 6.2, 6.2, 6.2, 5.95, 6.2, 8.32, 17.58, 10.8, -29.95, -20.56, -16.99, -13.86, -13.01, -11.53, -6.6, -0.0, 2.43, 1.77, -0.0, -0.0, -0.0, -0.0, 10.73, 10.73, 10.73, 11.2, 11.2, 11.6, 11.99, 12.11, 12.11, 12.11, 12.11, 12.5, 12.9, 12.9, 12.9, 13.48, 13.48, 13.48, 13.99, 14.42, 14.56, 14.13, 14.47, 14.47, 14.03, 14.03, 14.03, 13.63, 13.63, 13.36, 13.36, 12.91, 12.91, 12.31, 12.31, 11.84, 11.56, 11.03, 11.03, 10.6, 10.6, 11.03, 10.88, 10.46, 10.46, 10.05, 9.6, 9.6, 9.6, 9.6, 9.6, 9.2, 8.8, 8.8, 8.8, 8.4, 8.0, 8.0, 7.76, 8.4, 8.15, 7.21, 6.3, 5.98, 5.0, 5.2, 4.08, 4.54, 4.8, 5.21, 5.21, 4.18, 4.99, 5.21, 5.21, 4.6, 5.43, 5.0, 5.75, 6.2, 6.45, 7.41, 15.91, 19.92, -29.95, -21.46, -15.65, -13.41, -13.15, -10.12, -0.0, 3.58, 4.81, 1.47, -0.0, -1.19, -1.19, -1.19, 10.73, 10.73, 10.73, 11.2, 11.2, 11.2, 11.6, 11.72, 11.72, 11.72, 12.11, 12.5, 12.5, 12.9, 13.48, 13.48, 13.48, 13.99, 13.99, 14.42, 14.56, 14.9, 14.9, 14.47, 14.03, 14.03, 14.23, 13.8, 13.8, 13.36, 12.91, 12.91, 12.47, 12.47, 12.27, 11.84, 11.45, 11.03, 10.6, 10.6, 10.6, 10.46, 10.46, 10.46, 10.05, 10.05, 9.6, 9.6, 9.2, 9.2, 9.2, 9.2, 9.2, 8.8, 8.8, 8.4, 8.4, 8.0, 7.76, 7.76, 8.15, 7.21, 6.95, 5.7, 5.32, 5.54, 3.92, 3.53, 4.99, 5.21, 4.6, 4.18, 5.21, 5.43, 5.92, 4.6, 3.45, 4.99, 5.21, 5.95, 6.71, 9.48, 13.18, 20.7, 25.19, -31.12, -16.54, -12.96, -13.86, -0.0, 6.8, 7.82, 3.39, -0.0, -0.0, -1.19, -1.19, -1.19, 10.73, 10.73, 11.2, 11.2, 11.6, 11.6, 11.6, 11.33, 11.72, 11.72, 12.11, 12.5, 12.5, 12.9, 13.48, 13.48, 13.99, 13.99, 13.99, 14.4, 14.9, 14.9, 14.9, 14.68, 14.23, 14.23, 14.23, 13.8, 13.41, 13.41, 12.96, 12.47, 12.47, 12.45, 11.84, 11.84, 11.78, 11.03, 11.03, 10.46, 10.46, 10.46, 10.46, 10.46, 10.05, 10.05, 9.6, 9.2, 9.63, 9.2, 9.2, 9.2, 9.2, 8.8, 8.8, 8.8, 8.4, 7.76, 7.76, 7.76, 7.76, 7.81, 6.95, 5.7, 5.7, 5.95, 4.23, 3.77, 4.18, 3.61, 3.61, 4.36, 5.21, 5.43, 5.69, 4.6, 3.87, 4.4, 5.45, 6.44, 7.9, 9.66, 12.27, 17.05, 23.32, -13.79, -25.73, -14.79, 14.75, 15.2, 10.75, 6.8, 2.8, -0.0, -1.23, -1.23, -1.23, -1.23, 11.2, 11.2, 11.2, 11.2, 11.6, 11.6, 11.33, 11.72, 11.72, 11.72, 12.11, 12.11, 12.5, 13.48, 13.48, 13.48, 13.99, 13.99, 14.4, 14.84, 14.9, 15.12, 15.12, 14.68, 14.23, 14.23, 13.86, 13.86, 13.41, 12.96, 12.96, 12.52, 12.52, 12.01, 12.01, 11.78, 11.35, 11.28, 11.28, 10.84, 10.46, 10.46, 10.46, 10.05, 10.05, 10.05, 10.05, 9.63, 9.2, 9.2, 9.2, 8.8, 9.2, 8.8, 8.54, 8.8, 8.4, 8.15, 7.76, 7.81, 7.76, 7.44, 7.33, 6.95, 6.14, 6.14, 4.6, 4.05, 3.61, 2.95, 3.77, 4.8, 5.69, 5.92, 5.69, 5.1, 5.46, 6.01, 5.72, 8.15, 8.94, 10.16, 12.39, 16.24, 21.34, 24.59, -8.06, -12.15, 0.0, 15.65, 7.0, 4.81, 2.57, -0.0, -1.38, -1.34, -1.34, -1.34, 11.2, 11.2, 11.2, 11.2, 11.6, 11.33, 11.33, 11.72, 11.72, 12.25, 12.66, 12.66, 13.07, 13.07, 13.48, 13.57, 13.57, 14.4, 14.4, 14.4, 15.11, 15.12, 15.12, 15.12, 14.3, 13.86, 13.86, 13.86, 13.41, 12.96, 12.96, 12.52, 12.52, 12.01, 12.0, 12.0, 11.98, 11.28, 11.28, 10.84, 10.84, 10.84, 9.86, 9.86, 9.86, 9.86, 9.45, 9.45, 8.93, 8.93, 8.93, 8.8, 8.8, 8.8, 8.54, 8.15, 8.4, 8.4, 8.63, 8.22, 7.81, 7.6, 7.44, 6.98, 6.64, 5.86, 6.14, 4.4, 3.87, 3.45, 5.21, 6.24, 6.24, 5.98, 5.98, 6.58, 6.58, 7.56, 8.0, 8.73, 9.48, 10.62, 12.45, 15.81, 19.87, 22.05, 22.8, 14.86, 19.67, 11.7, 7.2, 5.35, 2.57, -0.0, -2.8, -2.8, -2.8, -2.8, 11.2, 11.2, 11.2, 10.94, 10.94, 11.85, 11.85, 11.85, 12.25, 12.25, 12.66, 12.66, 13.07, 13.57, 13.57, 13.57, 13.96, 13.96, 14.4, 14.66, 14.66, 15.12, 15.12, 14.75, 14.3, 13.86, 13.86, 13.41, 13.41, 12.96, 12.96, 12.52, 12.07, 12.07, 12.0, 12.0, 11.98, 11.53, 11.28, 11.28, 10.75, 10.75, 10.27, 9.86, 9.86, 9.86, 9.45, 8.93, 8.93, 8.93, 8.54, 8.8, 9.21, 9.04, 9.04, 8.63, 8.4, 8.0, 8.63, 8.22, 8.22, 7.81, 7.6, 8.0, 6.98, 7.33, 5.86, 5.21, 5.21, 4.88, 5.72, 6.2, 6.5, 7.9, 6.95, 7.9, 7.9, 8.93, 8.93, 9.6, 10.0, 11.03, 12.45, 15.38, 19.08, 21.06, 19.7, 19.34, 15.62, 11.27, 8.51, 6.84, 3.24, -1.5, -2.96, -3.79, -3.79, -3.79, 11.2, 11.2, 11.33, 11.85, 11.85, 11.85, 11.85, 11.85, 11.85, 12.72, 12.72, 13.15, 13.57, 13.57, 13.57, 13.96, 13.96, 13.96, 14.22, 14.66, 14.66, 14.68, 14.75, 14.75, 14.3, 13.86, 13.86, 13.41, 13.41, 12.96, 12.96, 12.52, 12.07, 12.07, 12.07, 11.62, 11.53, 11.53, 11.53, 10.75, 10.75, 10.75, 10.27, 9.86, 9.86, 9.86, 9.86, 8.93, 8.93, 8.93, 9.21, 9.21, 9.21, 9.21, 8.63, 8.63, 8.79, 8.37, 8.37, 8.22, 8.22, 7.81, 7.81, 7.6, 8.0, 7.44, 6.98, 6.64, 5.21, 5.21, 5.72, 6.4, 7.47, 9.97, 7.9, 7.9, 7.9, 8.93, 9.2, 9.6, 10.0, 10.62, 11.6, 14.03, 17.85, 19.04, 18.39, 16.74, 14.8, 11.53, 10.43, 8.25, 3.69, -1.69, -4.75, -4.5, -4.5, -4.5, 11.2, 11.2, 11.33, 11.85, 11.85, 11.85, 11.85, 11.85, 11.85, 12.72, 12.72, 13.15, 13.57, 13.57, 13.57, 13.96, 13.96, 13.96, 14.22, 14.66, 14.66, 14.68, 14.75, 14.75, 14.3, 13.86, 13.86, 13.41, 13.41, 12.96, 12.96, 12.52, 12.07, 12.07, 12.07, 11.62, 11.53, 11.53, 11.53, 10.75, 10.75, 10.75, 10.27, 9.86, 9.86, 9.86, 9.86, 8.93, 8.93, 8.93, 9.21, 9.21, 9.21, 9.21, 8.63, 8.63, 8.79, 8.37, 8.37, 8.22, 8.22, 7.81, 7.81, 7.6, 8.0, 7.44, 6.98, 6.64, 5.21, 5.21, 5.72, 6.4, 7.47, 9.97, 7.9, 7.9, 8.93, 8.93, 9.2, 9.6, 10.0, 9.77, 10.8, 13.02, 15.42, 17.36, 17.51, 16.27, 15.04, 13.59, 11.77, 10.13, 4.91, -2.22, -5.23, -5.81, -5.81, -5.81]}, {"header": {"dx": 0.06612293990616946, "dy": 0.0552356325346848, "nx": 98, "ny": 59, "la1": 35.046912555036876, "la2": 31.78801023549047, "lo1": -121.43107172385933, "lo2": -114.95102361305473, "refTime": "2026041219", "parameterCategory": 1, "parameterNumber": 3}, "data": [2.43, 2.43, 2.43, 2.43, 4.05, 4.05, 4.05, 5.18, 6.6, 7.82, 7.69, 5.98, 6.08, 5.43, 4.99, 6.44, 6.98, 7.59, 7.59, 8.58, 8.94, 8.22, 6.98, 6.24, 6.98, 6.71, 5.95, 5.95, 6.2, 5.92, 6.5, 8.59, 6.44, -7.6, -8.94, -9.21, -9.97, -8.0, -6.08, -4.83, -3.8, -3.65, 0.0, 7.78, 10.99, 13.2, 14.51, 15.99, 15.07, 12.76, 10.63, 10.63, 10.3, 9.89, 10.22, 9.06, 9.06, 8.18, 7.63, 8.05, 7.03, 7.44, 9.17, 11.33, 11.12, 10.38, 10.65, 10.98, 12.0, 11.94, 11.06, 9.53, 7.25, 6.65, 6.31, 9.5, 12.52, 11.5, 13.44, 12.52, 10.28, 0.0, 0.0, 10.28, 10.28, 10.28, 10.66, 11.12, 11.62, 12.07, 12.07, 12.52, 12.47, 12.75, 12.42, 12.9, 12.9, 13.19, 3.93, 4.05, 4.05, 4.05, 3.58, 5.18, 5.34, 6.8, 7.82, 7.16, 7.44, 6.87, 6.16, 5.95, 6.45, 6.2, 7.27, 9.08, 7.59, 8.55, 10.35, 9.42, 7.54, 7.26, 6.87, 6.98, 6.17, 5.7, 6.44, 7.27, 9.86, 10.24, 9.3, 2.82, -7.81, -8.49, -8.05, -7.89, -7.6, -7.15, -4.4, 0.0, 7.78, 12.13, 14.18, 15.45, 16.99, 15.62, 13.97, 10.63, 10.63, 10.3, 9.96, 9.17, 9.48, 9.36, 8.18, 7.63, 7.63, 7.03, 7.03, 7.43, 10.23, 11.12, 11.2, 11.04, 11.28, 11.28, 11.95, 11.83, 10.68, 9.16, 7.1, 6.15, 8.54, 12.3, 11.62, 11.5, 13.44, 12.52, 10.28, 0.0, 0.0, 10.28, 10.28, 10.28, 10.66, 11.12, 11.62, 12.07, 12.07, 12.52, 12.47, 12.75, 12.42, 12.9, 12.9, 13.19, 5.63, 5.81, 5.18, 6.6, 5.99, 5.99, 7.38, 7.38, 8.43, 7.93, 6.94, 6.31, 6.97, 6.45, 5.95, 6.44, 7.9, 7.9, 7.9, 10.01, 8.59, 8.22, 7.26, 8.53, 8.85, 6.69, 6.4, 6.4, 7.47, 9.1, 10.8, 11.2, 10.35, 7.33, 2.12, -6.01, -8.05, -8.94, -9.11, -8.55, 0.0, 9.8, 14.07, 15.99, 16.87, 17.25, 16.27, 15.25, 10.73, 10.28, 10.3, 10.3, 9.59, 9.59, 8.46, 8.59, 7.63, 7.63, 7.03, 7.03, 7.44, 9.17, 11.12, 11.6, 11.6, 12.23, 12.27, 11.64, 11.6, 10.4, 10.08, 8.9, 7.42, 7.69, 10.79, 12.52, 12.27, 11.44, 12.39, 13.41, 11.62, 11.62, 10.6, 10.14, 10.28, 10.28, 10.28, 11.18, 12.07, 12.07, 13.86, 14.25, 13.19, 12.85, 12.3, 12.88, 12.9, 13.15, 5.63, 6.4, 6.6, 7.82, 7.16, 8.18, 7.82, 7.82, 7.59, 7.13, 6.7, 6.59, 6.4, 6.2, 6.71, 7.27, 7.44, 8.53, 8.53, 7.9, 7.9, 6.44, 6.71, 8.22, 7.59, 7.9, 7.27, 7.56, 8.15, 9.75, 10.38, 10.58, 10.58, 9.32, 8.8, 8.4, 8.18, 7.9, 6.45, 8.38, 13.65, 16.1, 17.19, 15.72, 13.76, 13.06, 11.87, 9.76, 10.01, 9.96, 9.56, 9.59, 9.59, 8.42, 8.42, 7.78, 7.19, 7.44, 7.44, 7.44, 8.1, 10.62, 11.36, 12.04, 13.11, 12.79, 12.65, 11.44, 10.81, 10.18, 10.19, 10.25, 9.99, 9.42, 11.84, 10.8, 10.8, 10.73, 13.99, 13.01, 11.62, 12.07, 11.51, 11.09, 11.18, 11.62, 11.62, 12.07, 12.52, 13.86, 15.65, 14.68, 13.15, 12.42, 12.3, 12.88, 13.34, 13.15, 6.4, 6.4, 7.82, 7.82, 8.18, 8.18, 8.43, 7.82, 7.59, 7.95, 6.92, 6.15, 6.16, 5.92, 5.69, 6.76, 6.76, 7.73, 8.53, 8.53, 8.85, 7.9, 6.44, 6.97, 6.87, 7.9, 9.58, 10.6, 10.6, 9.33, 9.85, 9.55, 10.79, 10.92, 10.46, 10.27, 9.7, 9.96, 12.52, 16.69, 17.19, 15.31, 13.03, 10.59, 9.17, 9.02, 9.42, 9.77, 9.69, 9.59, 9.59, 9.59, 8.85, 8.42, 7.51, 7.78, 7.78, 8.05, 8.05, 8.38, 10.23, 12.1, 12.45, 13.39, 13.64, 13.19, 12.65, 11.6, 11.54, 10.75, 12.01, 12.86, 13.16, 13.28, 12.39, 5.0, 8.85, 8.85, 8.58, 12.87, 11.46, 11.95, 11.53, 11.55, 11.57, 12.07, 12.52, 12.96, 13.41, 15.65, 15.12, 13.79, 12.71, 12.3, 12.3, 12.88, 13.41, 13.34, 6.4, 6.4, 7.58, 7.16, 8.18, 8.18, 8.43, 7.59, 7.59, 7.13, 6.21, 5.9, 5.92, 4.8, 5.54, 5.54, 7.44, 7.54, 8.53, 9.62, 8.85, 8.53, 10.47, 10.12, 9.66, 9.66, 10.79, 10.6, 10.75, 10.27, 8.4, 8.4, 8.99, 11.03, 11.99, 11.5, 10.23, 9.13, 13.95, 17.43, 14.65, 12.5, 10.56, 9.77, 9.36, 9.77, 9.36, 9.36, 9.3, 8.85, 8.53, 8.85, 7.93, 7.51, 7.78, 8.21, 8.21, 8.21, 8.97, 10.47, 11.97, 12.09, 13.72, 14.33, 14.05, 13.64, 12.65, 11.64, 11.95, 11.17, 11.2, 12.01, 12.96, 14.66, 16.79, 3.79, 3.14, 5.6, 7.24, 9.66, 11.45, 11.61, 11.71, 11.35, 11.4, 11.88, 12.47, 14.3, 15.65, 15.2, 14.3, 13.34, 12.85, 11.44, 11.87, 12.9, 13.41, 13.41, 6.4, 6.4, 6.95, 7.16, 8.18, 8.18, 8.18, 7.59, 7.36, 7.13, 6.21, 5.06, 5.21, 4.8, 5.4, 6.2, 7.73, 7.82, 8.85, 8.85, 9.17, 10.12, 10.43, 12.73, 13.03, 12.65, 14.42, 14.11, 11.6, 8.73, 8.38, 8.79, 9.33, 9.21, 10.79, 11.88, 10.69, 10.65, 11.53, 12.72, 13.39, 11.85, 11.72, 11.16, 11.8, 9.64, 9.17, 8.32, 9.02, 8.85, 8.85, 7.64, 7.51, 6.94, 7.36, 8.67, 8.67, 9.17, 9.64, 11.38, 12.04, 13.01, 14.15, 14.33, 14.33, 14.42, 13.1, 12.05, 10.92, 10.43, 9.44, 9.62, 10.05, 12.01, 16.99, 9.42, -0.0, -0.0, 1.98, 3.68, 9.42, 10.4, 10.68, 10.46, 10.91, 11.84, 14.03, 15.57, 15.65, 13.86, 12.52, 12.71, 12.72, 11.85, 11.87, 12.9, 13.41, 13.41, 6.2, 6.4, 6.95, 6.95, 8.18, 8.18, 7.59, 7.59, 7.36, 6.9, 5.75, 5.06, 4.6, 6.5, 7.82, 6.5, 7.02, 8.3, 9.96, 10.3, 8.59, 7.44, 8.38, 12.22, 10.75, 12.16, 14.53, 14.94, 11.52, 9.48, 11.21, 11.91, 12.04, 11.87, 9.77, 9.42, 9.17, 8.41, 10.09, 10.68, 11.92, 12.39, 13.65, 13.59, 11.38, 10.12, 8.85, 10.02, 10.47, 10.09, 7.78, 7.24, 7.51, 7.36, 7.82, 8.85, 9.36, 9.36, 10.04, 11.87, 12.71, 13.49, 13.72, 13.39, 13.41, 13.54, 12.76, 12.02, 10.75, 8.99, 7.73, 6.8, 8.06, 12.52, 16.09, 13.59, -0.0, -0.0, -0.0, -0.0, -0.0, 6.21, 6.98, 9.67, 11.61, 13.31, 14.22, 14.31, 13.44, 12.07, 12.07, 12.44, 13.09, 12.72, 13.09, 13.34, 13.36, 13.34, 6.2, 6.4, 7.58, 6.95, 7.16, 8.18, 7.59, 6.6, 5.92, 5.8, 5.2, 5.64, 6.67, 8.3, 7.28, 7.28, 8.3, 9.48, 11.16, 11.16, 9.48, 8.05, 9.8, 8.58, 8.1, 7.9, 8.8, 11.09, 11.06, 11.17, 12.87, 14.99, 14.42, 12.39, 9.5, 7.56, 7.9, 10.0, 7.9, 8.73, 11.26, 12.51, 11.2, 9.5, 8.22, 7.9, 9.42, 11.09, 11.44, 10.25, 8.83, 7.54, 7.54, 8.53, 9.02, 9.17, 9.17, 9.67, 10.79, 13.01, 13.59, 13.44, 12.3, 12.74, 12.42, 12.05, 12.19, 10.83, 9.39, 6.99, 6.18, 6.1, 9.49, 14.75, 14.3, 14.3, 0.0, 6.6, 7.69, 11.38, 15.36, 2.81, 6.44, 9.97, 11.62, 11.95, 12.86, 12.83, 10.27, 11.28, 12.07, 12.52, 12.44, 13.53, 13.59, 13.79, 13.79, 13.34, 6.2, 6.2, 7.58, 7.58, 7.16, 7.16, 6.6, 6.6, 5.92, 5.36, 5.6, 5.8, 5.86, 6.51, 6.2, 6.65, 9.16, 11.33, 12.65, 11.5, 9.17, 9.17, 9.8, 10.12, 8.58, 6.97, 6.64, 8.58, 11.8, 12.27, 12.65, 15.36, 13.42, 10.82, 8.53, 7.9, 7.59, 7.64, 8.93, 9.17, 9.69, 9.64, 7.78, 7.18, 6.42, 7.9, 8.22, 8.97, 9.96, 9.06, 7.78, 8.38, 9.48, 10.79, 10.35, 9.97, 10.4, 10.62, 11.21, 13.28, 13.92, 13.72, 13.99, 12.74, 12.18, 11.68, 11.38, 10.59, 7.21, 5.73, 6.2, 7.79, 13.57, 14.75, 0.0, 0.0, 0.0, 14.3, 12.52, 14.95, 16.42, 14.79, 13.41, 10.41, 9.63, 8.34, 8.72, 10.28, 9.7, 10.27, 11.98, 12.07, 12.96, 13.33, 13.77, 13.77, 13.86, 13.33, 6.2, 6.2, 7.58, 7.82, 7.16, 7.16, 6.6, 6.6, 5.92, 5.55, 5.36, 6.2, 5.15, 5.63, 5.02, 6.4, 9.09, 11.06, 11.88, 12.01, 9.67, 11.16, 9.87, 8.57, 9.22, 9.17, 7.27, 8.82, 10.37, 9.8, 7.78, 9.17, 9.27, 7.9, 7.27, 7.73, 8.22, 8.22, 8.53, 9.21, 10.12, 8.91, 7.72, 7.27, 6.98, 6.83, 7.59, 8.82, 7.9, 7.64, 8.72, 10.12, 12.65, 14.81, 14.37, 14.53, 14.53, 13.15, 12.07, 13.83, 15.75, 15.08, 13.39, 13.37, 13.03, 12.37, 12.76, 12.63, 11.06, 8.44, 8.85, 10.12, 0.0, -14.3, -13.86, -13.86, -14.3, 12.96, 12.27, 12.72, 14.01, 14.07, 13.1, 11.2, 9.81, 8.38, 7.74, 10.58, 8.93, 9.09, 10.75, 11.95, 12.52, 12.83, 13.31, 13.41, 13.41, 12.96, 6.2, 6.2, 6.4, 7.82, 5.99, 5.99, 6.6, 6.6, 5.92, 5.55, 5.55, 6.2, 5.48, 5.31, 4.98, 4.65, 5.6, 7.16, 9.35, 9.42, 8.21, 7.2, 6.35, 7.2, 6.0, 8.1, 7.82, 4.94, 6.5, 4.6, 4.8, 6.76, 6.76, 5.21, 5.69, 4.99, 4.92, 6.21, 7.68, 8.23, 8.51, 8.23, 7.41, 6.5, 5.98, 6.64, 8.24, 8.93, 9.09, 8.49, 10.01, 11.76, 14.23, 16.01, 16.0, 16.31, 15.87, 14.66, 12.92, 14.3, 16.66, 15.35, 13.81, 13.37, 14.16, 16.16, 17.12, 17.28, 17.94, 17.25, 14.53, 11.17, -9.17, -12.96, -12.96, -13.86, -13.86, 12.89, 11.87, 13.6, 14.39, 13.87, 12.62, 12.13, 10.01, 10.12, 9.86, 10.28, 8.38, 7.59, 8.38, 9.6, 11.18, 12.07, 12.52, 12.52, 12.52, 12.52, 6.2, 6.2, 6.4, 6.6, 5.99, 5.99, 5.48, 6.4, 5.92, 5.73, 5.73, 4.89, 5.48, 5.64, 5.81, 4.0, 4.11, 4.24, 5.11, 5.28, 6.65, 6.0, 4.24, 3.85, 3.53, 4.58, 4.24, 5.16, 3.82, 3.11, 3.08, 4.32, 4.72, 4.54, 4.18, 3.11, 3.82, 5.43, 6.45, 6.7, 6.94, 6.94, 6.7, 6.17, 6.3, 7.56, 9.2, 9.32, 9.7, 9.48, 9.9, 11.2, 13.56, 15.63, 16.5, 16.84, 16.0, 15.06, 11.62, 12.85, 14.99, 13.81, 12.87, 13.15, 16.37, 17.62, 19.86, 20.43, 21.31, 23.59, 20.36, 15.99, -10.75, -12.52, -12.07, -9.8, 10.82, 12.36, 12.9, 13.54, 12.97, 11.87, 10.48, 9.48, 10.37, 11.29, 13.75, 11.62, 7.59, 6.44, 2.39, 4.6, 11.18, 11.62, 11.91, 12.07, 12.07, 12.07, 4.87, 6.88, 6.2, 6.4, 5.99, 5.81, 5.31, 6.4, 5.92, 5.92, 5.92, 4.89, 5.04, 5.64, 4.62, 4.23, 4.62, 4.81, 5.18, 5.63, 7.1, 6.4, 4.66, 4.5, 2.8, 2.8, 2.35, 2.35, 2.28, 1.97, 1.77, 2.28, 3.32, 3.39, 3.25, 3.11, 3.81, 5.45, 5.45, 6.44, 6.45, 5.43, 6.2, 7.9, 7.56, 8.54, 7.67, 8.54, 9.32, 9.6, 10.21, 11.13, 13.34, 13.86, 12.9, 11.86, 13.02, 14.96, 13.88, 11.14, 12.96, 12.85, 13.8, 14.75, 14.97, 15.12, 16.4, 17.64, 18.0, 16.2, 19.19, 14.79, 10.43, 5.4, 7.26, 11.03, 11.94, 12.87, 13.23, 12.22, 10.84, 9.36, 7.28, 7.5, 8.85, 11.16, 14.16, 13.59, 9.3, 7.59, -0.0, -0.0, 11.18, 11.28, 9.96, 11.51, 11.62, 11.62, 5.46, 5.46, 4.87, 5.02, 5.81, 5.81, 5.31, 6.4, 5.92, 5.92, 5.92, 5.04, 5.04, 5.19, 4.23, 4.35, 4.75, 4.75, 5.65, 5.49, 6.8, 6.8, 4.95, 4.62, 3.16, 2.96, 1.46, 1.42, 1.26, 0.0, 0.0, 0.0, 0.0, 1.52, 2.82, 2.7, 4.6, 4.98, 6.2, 4.6, 4.36, 5.2, 4.8, 7.59, 7.21, 7.81, 8.15, 8.0, 8.8, 8.54, 9.2, 9.63, 9.21, 8.17, 8.85, 9.11, 9.63, 11.69, 13.6, 12.27, 11.59, 11.55, 11.84, 12.31, 12.75, 13.36, 15.16, 14.37, 13.34, 12.22, 13.23, 15.99, 12.81, 11.88, 10.92, 13.12, 12.96, 12.33, 11.29, 10.47, 9.27, 6.98, 5.93, 4.81, 5.4, 11.28, 13.32, 13.41, 12.07, 12.07, 11.18, 10.73, 10.6, 9.58, 10.0, 11.55, 11.57, 11.57, 5.46, 4.87, 4.87, 4.52, 5.81, 5.81, 5.31, 5.31, 5.92, 5.92, 5.04, 5.04, 5.04, 5.19, 4.12, 4.23, 4.35, 3.33, 4.12, 5.81, 5.65, 5.65, 5.09, 3.24, 2.96, 1.5, 0.0, 0.0, 0.0, 0.0, 0.0, -1.26, 0.0, 0.0, 1.45, 2.83, 3.99, 4.4, 5.0, 3.39, 3.61, 4.8, 5.95, 6.95, 7.21, 7.81, 8.15, 8.54, 8.0, 7.64, 7.64, 7.64, 7.21, 7.44, 7.81, 8.17, 8.6, 10.18, 11.62, 10.16, 9.36, 10.32, 10.62, 10.65, 10.2, 11.62, 11.6, 12.51, 12.82, 11.96, 10.12, 13.92, 16.48, 13.91, 12.84, 12.54, 12.02, 10.86, 9.37, 9.17, 8.43, 7.71, 6.6, 5.8, 7.44, 9.3, 12.46, 12.33, 11.99, 11.6, 10.73, 9.6, 9.7, 10.46, 10.66, 10.68, 11.13, 11.13, 3.81, 4.87, 5.02, 4.87, 5.63, 5.81, 5.31, 5.48, 4.89, 4.89, 5.04, 5.04, 5.19, 5.19, 5.35, 4.12, 2.8, 3.24, 4.12, 5.96, 5.81, 5.09, 3.16, 1.6, 0.0, 0.0, -1.34, -1.34, -2.65, -2.72, -2.79, -1.41, -1.34, 0.0, 0.99, 2.57, 3.81, 4.8, 3.82, 3.82, 4.8, 5.2, 6.95, 6.45, 7.21, 8.54, 8.93, 8.37, 7.56, 7.21, 5.72, 6.01, 6.01, 6.64, 8.15, 8.79, 9.04, 9.2, 8.59, 8.22, 7.9, 8.03, 9.64, 9.83, 9.83, 8.94, 10.28, 12.22, 11.88, 12.24, 9.5, 12.82, 16.79, 13.46, 11.86, 10.86, 10.6, 9.79, 9.96, 9.42, 9.81, 9.2, 8.18, 9.13, 9.17, 8.75, 10.09, 10.79, 10.73, 10.73, 9.66, 8.49, 9.48, 11.13, 11.4, 10.56, 11.0, 11.0, 3.81, 3.36, 5.02, 6.4, 5.63, 5.63, 5.31, 4.89, 5.04, 5.04, 5.04, 5.19, 5.19, 5.19, 5.19, 4.0, 2.8, 3.49, 5.81, 5.81, 3.49, 1.78, 0.0, 0.0, -1.42, -2.88, -4.35, -4.35, -4.35, -5.01, -3.42, -1.78, -1.62, 0.0, 1.13, 2.04, 3.14, 3.25, 5.52, 5.29, 5.06, 5.86, 6.32, 6.64, 7.56, 7.9, 7.9, 7.9, 6.95, 6.01, 6.3, 5.46, 5.46, 6.95, 8.18, 9.04, 8.18, 8.55, 7.59, 7.15, 7.15, 8.93, 9.55, 9.64, 9.39, 9.39, 10.28, 11.51, 9.6, 9.21, 9.2, 13.15, 16.27, 11.45, 8.51, 7.95, 8.33, 9.18, 11.27, 10.76, 10.01, 9.67, 9.27, 9.64, 10.12, 10.12, 10.12, 10.62, 10.47, 10.82, 10.02, 10.01, 10.62, 11.21, 11.21, 10.7, 10.5, 10.5, 3.36, 4.87, 4.87, 5.81, 5.63, 5.15, 5.31, 4.89, 5.04, 5.04, 5.04, 5.19, 5.35, 5.35, 4.0, 3.69, 4.24, 4.95, 4.95, 3.3, 1.73, 0.0, 0.0, 0.0, 0.0, 0.0, -1.72, 0.0, 0.0, 0.0, 0.0, 0.0, 0.0, 0.0, 0.0, 0.0, 0.98, 1.68, 2.13, 3.53, 4.6, 5.45, 5.7, 6.3, 6.58, 6.58, 6.3, 6.3, 6.01, 6.01, 6.3, 6.3, 6.3, 7.56, 8.18, 8.55, 7.68, 8.24, 7.9, 7.27, 8.24, 8.93, 9.2, 8.37, 9.33, 10.28, 10.28, 10.47, 7.47, 6.4, 8.51, 11.48, 12.72, 7.8, 4.2, 2.87, 3.69, 6.3, 9.67, 11.64, 9.39, 8.72, 8.78, 8.85, 9.17, 9.69, 8.85, 8.69, 9.69, 9.64, 10.36, 11.16, 11.21, 11.03, 11.14, 10.58, 10.4, 10.4, 3.36, 4.87, 4.87, 5.63, 5.63, 5.15, 5.31, 4.89, 5.04, 5.04, 5.04, 5.19, 5.35, 5.35, 3.79, 3.69, 3.88, 4.66, 6.16, 3.69, 4.67, 6.34, 5.65, 6.87, 5.81, 7.4, 6.52, 6.54, 6.31, 6.31, 5.01, 3.42, 3.42, 1.73, 1.69, 0.0, 0.0, 0.0, 0.93, 1.4, 2.01, 2.76, 2.76, 3.37, 3.75, 5.0, 5.1, 5.7, 5.46, 5.21, 5.21, 6.01, 6.64, 7.56, 7.15, 7.13, 7.59, 6.95, 6.31, 6.98, 7.27, 8.03, 8.8, 9.46, 9.35, 9.83, 10.23, 9.6, 7.81, 5.98, 6.0, 5.98, 5.22, 1.29, -1.04, -2.11, 0.0, 3.62, 8.46, 8.43, 8.06, 8.05, 8.85, 8.97, 8.02, 8.22, 7.59, 7.06, 8.22, 8.22, 9.76, 10.99, 11.39, 10.73, 10.63, 10.18, 9.52, 9.52, 3.36, 4.87, 4.87, 5.63, 5.63, 5.15, 5.15, 4.89, 5.04, 5.19, 5.04, 5.19, 5.35, 4.12, 3.79, 3.79, 2.64, 4.66, 4.1, 5.34, 8.43, 9.92, 9.17, 7.2, 7.03, 7.6, 7.2, 6.53, 6.71, 6.88, 5.65, 4.23, 4.23, 2.87, 3.04, 2.96, 2.64, 1.17, 1.05, 0.85, 1.54, 2.21, 2.21, 2.89, 3.37, 4.23, 4.4, 5.46, 5.7, 5.46, 5.59, 6.64, 6.64, 8.18, 7.9, 7.47, 7.27, 7.27, 6.87, 6.95, 6.95, 8.18, 8.8, 9.46, 9.35, 10.23, 11.45, 10.16, 8.41, 6.67, 5.8, 3.92, 1.43, -3.03, -5.94, -3.69, 4.47, 5.37, 6.34, 6.27, 6.27, 7.36, 9.12, 9.57, 9.48, 9.42, 9.08, 8.82, 9.17, 8.41, 10.04, 10.94, 10.81, 10.23, 10.04, 9.66, 8.64, 8.64, 3.36, 4.87, 4.38, 5.63, 5.15, 5.15, 5.15, 4.89, 5.04, 5.19, 5.19, 5.19, 5.19, 3.79, 3.79, 2.57, 2.72, 3.2, 3.58, 5.23, 6.9, 8.03, 7.2, 5.5, 5.37, 5.65, 4.23, 4.01, 4.01, 4.12, 4.23, 4.23, 4.23, 2.87, 4.12, 4.12, 3.79, 2.28, 2.06, 1.84, 1.69, 2.39, 2.28, 3.11, 3.95, 4.4, 4.23, 4.4, 5.21, 5.86, 6.32, 7.21, 7.21, 7.21, 7.56, 7.9, 8.07, 7.59, 5.95, 6.95, 7.28, 8.55, 8.8, 8.99, 9.64, 11.56, 11.87, 10.62, 9.97, 10.01, 9.48, 9.77, 11.28, 3.95, 8.53, 7.93, 6.42, 3.84, 2.3, 1.94, 3.92, 6.8, 10.47, 12.22, 12.45, 11.72, 11.35, 10.99, 10.03, 9.52, 9.81, 9.66, 9.62, 9.66, 8.6, 8.22, 8.22, 8.22, 4.87, 4.87, 4.38, 5.63, 5.15, 5.15, 5.31, 4.89, 5.04, 5.19, 5.19, 5.19, 4.12, 3.79, 3.79, 2.57, 2.98, 3.2, 3.3, 3.59, 5.37, 5.09, 4.37, 4.0, 2.72, 2.87, 2.94, 2.87, 2.79, 2.65, 2.72, 2.72, 2.72, 2.72, 2.72, 2.72, 2.65, 2.43, 2.13, 2.82, 2.6, 2.49, 3.11, 2.97, 3.78, 4.4, 4.58, 4.2, 4.96, 6.64, 7.21, 7.56, 7.56, 7.21, 6.64, 7.56, 8.12, 7.9, 6.2, 6.32, 8.63, 9.55, 9.36, 9.13, 9.42, 11.99, 12.42, 10.21, 10.0, 9.81, 10.01, 11.3, 14.85, 14.75, 8.49, 5.95, 4.81, 2.52, 0.0, 0.0, 4.37, 8.85, 12.52, 13.8, 14.13, 13.13, 12.27, 12.27, 11.44, 10.3, 10.01, 9.27, 8.53, 8.12, 8.22, 7.78, 8.64, 8.64, 4.87, 4.87, 4.38, 5.63, 5.15, 5.15, 5.15, 4.89, 5.04, 5.19, 5.19, 4.12, 4.12, 3.79, 3.79, 2.8, 3.07, 2.89, 3.39, 5.09, 5.23, 5.37, 3.16, 2.64, 2.72, 2.96, 2.87, 2.87, 1.45, 1.41, 1.34, 1.34, 1.34, 1.34, 2.65, 2.65, 2.65, 2.5, 2.2, 2.82, 2.49, 2.39, 3.25, 3.51, 3.06, 3.7, 4.23, 5.46, 5.46, 6.3, 6.58, 6.3, 6.01, 6.32, 6.32, 7.21, 6.73, 7.68, 7.15, 9.6, 8.41, 8.56, 8.8, 8.8, 9.13, 12.87, 12.04, 11.92, 9.38, 7.87, 7.27, 7.88, 13.77, 16.54, 12.77, 9.42, 6.8, 9.8, 14.75, 15.65, 15.27, 13.28, 12.98, 13.28, 12.56, 12.07, 11.09, 10.65, 10.98, 10.92, 9.59, 8.16, 7.36, 7.64, 7.78, 7.78, 9.0, 9.0, 4.87, 4.87, 4.38, 5.63, 5.63, 5.15, 4.74, 4.89, 5.04, 5.19, 4.0, 4.0, 4.12, 4.12, 3.79, 2.8, 3.07, 2.98, 3.3, 5.09, 5.09, 4.88, 3.33, 2.96, 2.8, 1.42, 1.54, 1.45, 1.45, 1.41, 1.41, 1.37, 1.3, 1.3, 1.46, 2.88, 2.65, 2.57, 2.35, 3.18, 2.71, 2.59, 2.59, 3.51, 3.36, 3.21, 3.7, 3.44, 3.75, 3.93, 4.5, 5.1, 4.96, 5.59, 6.32, 6.32, 6.87, 6.79, 7.21, 9.04, 9.33, 7.95, 7.82, 8.8, 10.17, 13.02, 11.62, 11.2, 9.3, 5.45, 3.82, 5.11, 10.77, 18.85, 16.48, 14.54, 17.85, 7.6, 8.18, 5.4, 10.43, 14.9, 15.05, 14.56, 11.5, 10.48, 10.03, 9.96, 10.58, 10.48, 10.75, 8.73, 7.73, 7.36, 7.78, 8.31, 8.94, 8.94, 4.87, 4.87, 4.38, 5.63, 5.15, 5.15, 5.15, 4.89, 5.04, 5.04, 4.0, 4.0, 4.12, 4.12, 3.79, 2.8, 3.07, 3.07, 4.5, 4.5, 4.5, 3.16, 3.33, 3.04, 1.5, 1.46, 1.46, 1.54, 1.45, 1.45, 1.41, 1.54, 1.5, 1.5, 1.46, 1.46, 1.46, 2.88, 2.8, 3.53, 2.94, 2.71, 2.59, 3.36, 3.51, 3.51, 3.36, 2.83, 3.21, 3.37, 4.2, 4.5, 5.46, 6.95, 6.32, 6.32, 6.01, 6.28, 7.76, 8.8, 8.54, 8.55, 8.0, 8.72, 9.2, 11.2, 10.8, 10.73, 7.59, 5.7, 4.8, 6.87, 9.34, 16.81, 20.26, 17.17, 18.02, -0.0, -0.0, -0.0, 3.25, 13.59, 15.2, 13.28, 11.2, 10.73, 10.3, 10.3, 9.89, 9.8, 10.75, 9.66, 8.66, 8.3, 7.9, 8.73, 8.94, 8.94, 4.38, 4.38, 4.38, 5.63, 5.15, 5.15, 5.15, 4.74, 4.89, 5.04, 4.0, 4.0, 4.12, 2.72, 2.8, 2.8, 3.07, 4.5, 4.5, 4.5, 4.5, 3.07, 2.88, 2.96, 1.5, 1.5, 1.46, 1.5, 1.54, 1.54, 1.54, 1.54, 1.54, 1.54, 1.5, 1.5, 2.96, 3.24, 2.96, 4.12, 3.65, 3.18, 3.67, 3.36, 3.51, 3.51, 3.25, 2.97, 2.83, 3.44, 3.88, 5.06, 5.64, 5.64, 5.9, 6.01, 6.32, 6.28, 6.44, 7.07, 6.95, 7.06, 9.32, 8.3, 9.32, 8.99, 10.16, 8.07, 7.27, 6.31, 5.75, 5.98, 8.66, 13.49, 16.45, 18.78, 13.17, 0.0, -3.9, -0.0, 5.6, 14.75, 13.96, 11.8, 10.41, 10.63, 10.54, 10.54, 9.36, 9.36, 9.4, 9.95, 9.77, 9.36, 9.56, 8.93, 8.94, 8.94, 4.38, 4.38, 4.38, 5.63, 5.15, 5.15, 4.74, 4.74, 4.89, 4.89, 3.88, 4.0, 4.0, 2.72, 2.72, 2.72, 4.5, 4.5, 4.5, 4.5, 3.07, 3.07, 2.8, 1.42, 1.46, 1.46, 1.46, 1.46, 1.5, 1.5, 1.5, 1.5, 1.54, 1.54, 1.54, 1.5, 3.24, 3.33, 3.33, 4.62, 3.88, 4.81, 4.15, 3.36, 3.51, 3.36, 3.51, 3.11, 3.21, 3.88, 4.83, 6.04, 6.83, 6.42, 6.7, 6.48, 6.32, 6.63, 6.55, 7.15, 6.32, 6.73, 8.18, 8.21, 7.51, 9.3, 7.9, 6.69, 5.9, 5.29, 5.75, 5.4, 6.94, 9.48, 10.77, 10.43, 10.52, 6.9, 3.9, 2.54, 6.7, 11.72, 12.94, 10.73, 9.27, 8.85, 9.06, 9.16, 9.16, 9.62, 9.8, 9.97, 10.54, 10.07, 9.8, 9.56, 9.69, 9.69, 5.15, 5.15, 5.63, 5.63, 5.15, 5.15, 4.74, 4.89, 4.89, 4.89, 3.88, 4.0, 4.12, 4.12, 4.5, 4.37, 4.37, 4.37, 4.37, 2.98, 3.07, 2.8, 2.8, 1.42, 1.42, 1.42, 1.42, 1.46, 1.5, 1.5, 1.5, 1.5, 1.5, 1.5, 1.65, 1.65, 3.24, 4.88, 4.88, 6.14, 5.81, 6.0, 5.2, 4.4, 4.98, 4.4, 3.67, 4.32, 6.45, 5.21, 6.04, 6.53, 6.95, 6.42, 6.7, 7.13, 7.59, 7.27, 7.13, 7.13, 6.32, 6.73, 7.51, 7.13, 7.27, 9.16, 8.22, 5.98, 4.88, 4.6, 5.75, 7.18, 6.94, 6.3, 5.92, 5.94, 6.97, 8.4, 8.4, 7.8, 7.88, 9.1, 10.75, 9.73, 8.3, 7.78, 7.19, 8.15, 9.06, 9.57, 9.57, 9.34, 9.53, 10.25, 10.75, 10.22, 10.03, 10.03, 5.15, 5.15, 5.15, 5.15, 5.15, 4.74, 4.74, 4.89, 4.89, 4.89, 3.76, 4.0, 4.0, 4.5, 4.62, 4.5, 4.37, 4.37, 2.72, 2.72, 2.8, 2.8, 1.42, 1.42, 1.42, 1.42, 1.38, 1.42, 0.0, 0.0, 0.0, 0.0, 0.0, 1.6, 1.65, 3.59, 5.23, 5.23, 6.9, 6.31, 7.2, 6.4, 6.08, 5.46, 4.61, 4.78, 5.4, 7.44, 8.91, 8.37, 6.98, 5.86, 6.58, 6.14, 6.42, 6.15, 6.59, 7.06, 7.59, 6.95, 6.32, 5.82, 5.53, 6.11, 6.64, 7.59, 8.49, 8.53, 6.01, 6.95, 7.9, 8.07, 6.98, 5.65, 2.8, 2.94, 5.13, 7.2, 8.77, 10.66, 11.43, 12.59, 10.19, 8.1, 6.79, 6.78, 6.64, 7.95, 8.51, 9.5, 8.2, 8.2, 8.18, 9.54, 10.61, 10.87, 10.73, 10.73, 6.0, 6.0, 6.2, 6.2, 5.15, 4.74, 4.74, 4.89, 4.89, 5.04, 3.88, 4.11, 4.37, 4.37, 4.5, 4.5, 4.5, 3.07, 2.8, 2.8, 2.8, 1.42, 1.42, 1.42, 1.42, 1.42, 1.38, 1.34, 0.0, 0.0, 0.0, 0.0, 0.0, 1.73, 1.78, 5.65, 5.81, 7.4, 6.72, 8.25, 9.17, 8.43, 7.19, 5.95, 4.6, 5.45, 6.87, 8.94, 8.94, 7.89, 6.24, 5.38, 5.38, 5.86, 5.64, 5.9, 6.59, 6.71, 7.06, 6.24, 5.46, 4.98, 4.74, 5.2, 5.72, 5.86, 6.95, 7.68, 8.03, 8.23, 8.0, 7.59, 7.19, 7.49, 5.29, 3.28, 4.82, 5.85, 6.4, 9.2, 11.66, 11.14, 8.9, 6.17, 5.49, 6.74, 9.61, 10.75, 9.02, 7.11, 6.0, 6.51, 7.13, 9.22, 9.73, 11.25, 11.07, 11.07, 5.55, 5.55, 5.55, 5.73, 5.73, 4.74, 4.74, 4.89, 4.89, 5.04, 3.88, 4.24, 4.24, 4.95, 4.95, 4.5, 4.5, 2.88, 2.88, 2.88, 2.88, 2.88, 1.42, 1.42, 1.42, 1.42, 1.38, 1.3, 1.78, 0.0, 0.0, 1.78, 1.78, 1.94, 3.79, 5.65, 7.2, 7.4, 7.4, 8.77, 9.17, 8.68, 7.69, 5.75, 5.29, 5.75, 6.21, 7.92, 6.64, 5.99, 4.92, 4.6, 4.6, 4.6, 5.21, 5.46, 5.7, 6.44, 6.44, 5.43, 4.8, 3.81, 4.5, 4.5, 4.44, 5.31, 4.83, 6.64, 7.27, 7.59, 6.95, 6.58, 7.28, 8.93, 11.41, 10.49, 6.84, 4.81, 4.65, 5.06, 6.8, 5.94, 4.92, 4.54, 6.36, 11.7, 15.61, 13.39, 8.94, 5.11, 5.11, 6.43, 8.05, 8.78, 9.87, 10.97, 11.17, 11.17, 5.55, 5.55, 6.42, 5.73, 5.73, 5.73, 4.74, 4.89, 4.89, 5.04, 3.88, 4.24, 4.66, 4.66, 4.5, 4.5, 3.07, 4.5, 2.8, 2.88, 2.88, 2.88, 1.46, 1.42, 1.38, 1.38, 1.38, 1.3, 1.38, 1.94, 3.2, 3.39, 3.49, 3.9, 6.34, 5.65, 7.2, 7.4, 8.77, 8.77, 9.92, 8.93, 7.93, 6.21, 5.52, 5.2, 5.8, 5.73, 5.73, 5.2, 4.83, 4.6, 4.6, 4.6, 5.21, 4.78, 5.21, 5.45, 5.69, 5.43, 3.98, 3.8, 5.21, 4.68, 4.94, 5.15, 5.03, 6.01, 5.46, 6.44, 7.9, 7.59, 6.76, 8.41, 11.37, 15.07, 9.32, 4.81, 3.34, 1.83, 1.93, 1.93, 3.16, 4.75, 13.26, 17.88, 17.88, 11.7, 4.52, 4.1, 5.6, 6.7, 7.54, 9.8, 11.29, 11.64, 12.56, 12.56, 6.42, 6.42, 6.42, 5.55, 5.73, 5.73, 5.15, 5.31, 4.89, 5.04, 3.88, 4.37, 4.66, 4.66, 4.37, 4.5, 4.5, 4.5, 4.12, 2.88, 2.88, 2.96, 2.88, 1.46, 1.38, 1.38, 1.38, 1.34, 1.47, 2.89, 2.89, 3.3, 3.39, 3.79, 4.42, 4.42, 6.34, 7.98, 9.61, 10.76, 10.76, 9.92, 8.43, 7.19, 5.2, 5.2, 5.6, 6.2, 6.2, 5.4, 4.4, 4.2, 4.2, 4.2, 4.78, 4.78, 4.6, 4.6, 4.99, 3.98, 3.68, 5.06, 5.59, 5.86, 5.44, 6.01, 6.55, 6.7, 7.51, 8.82, 8.6, 10.4, 9.42, 8.91, 10.9, 13.42, 11.37, 8.4, 4.42, 2.21, 2.28, 2.57, 5.23, 12.01, 16.48, 15.59, 17.88, 3.16, 4.38, 5.6, 6.7, 6.94, 8.01, 10.55, 12.66, 12.65, 13.44, 13.44, 6.42, 6.42, 6.0, 6.0, 5.73, 5.73, 5.15, 5.31, 5.48, 5.04, 5.19, 4.37, 4.81, 4.66, 5.99, 5.64, 4.37, 4.37, 4.0, 2.8, 2.88, 2.88, 2.88, 1.46, 1.42, 1.38, 1.38, 1.34, 2.89, 1.51, 1.51, 1.68, 1.68, 1.89, 0.0, 0.0, 5.09, 12.36, 13.46, 12.56, 10.76, 9.66, 8.43, 6.0, 5.4, 4.32, 4.65, 4.98, 6.0, 5.8, 4.8, 4.6, 4.4, 4.4, 4.4, 4.78, 4.18, 4.18, 3.25, 4.32, 4.72, 5.2, 5.86, 5.21, 5.86, 6.98, 6.7, 7.07, 7.76, 8.21, 8.95, 10.09, 9.96, 8.91, 9.2, 10.18, 12.16, 11.43, 10.91, 7.8, 6.8, 8.53, 12.92, 16.54, 15.61, 16.09, 8.93, 5.31, 7.44, 8.3, 8.01, 8.53, 11.2, 12.42, 13.41, 13.86, 14.07, 14.07, 6.0, 6.0, 6.0, 6.0, 5.73, 5.73, 4.89, 5.31, 4.24, 4.24, 5.19, 4.0, 4.37, 5.99, 5.99, 5.64, 4.37, 4.37, 4.0, 4.12, 2.8, 2.88, 2.88, 2.88, 1.42, 1.38, 1.38, 1.34, 2.89, 2.98, 1.51, 1.68, 0.0, 0.0, -1.83, 0.0, 11.06, 14.3, 14.07, 12.87, 11.38, 9.66, 8.68, 6.0, 4.48, 5.64, 5.86, 5.27, 6.51, 6.3, 5.64, 4.99, 5.06, 5.06, 5.06, 4.4, 4.18, 3.25, 3.25, 4.72, 6.4, 5.43, 4.4, 4.68, 6.01, 6.64, 6.28, 6.01, 7.28, 8.3, 10.05, 9.42, 9.48, 7.95, 8.46, 10.47, 11.78, 12.8, 13.57, 14.6, 13.59, 11.06, 12.27, 14.03, 13.59, 12.39, 9.8, 9.48, 9.17, 8.44, 9.17, 10.87, 12.52, 12.86, 12.88, 13.33, 13.86, 13.86, 5.8, 5.8, 6.0, 6.0, 6.64, 5.73, 5.92, 5.31, 4.24, 4.24, 4.37, 4.0, 5.64, 6.17, 5.99, 5.48, 4.37, 4.37, 4.0, 4.12, 2.8, 2.8, 2.88, 2.88, 1.42, 1.38, 1.38, 1.47, 2.89, 2.98, 2.98, 1.51, 0.0, -3.2, -4.24, 1.47, 11.03, 13.34, 13.42, 12.11, 10.6, 9.88, 9.33, 6.87, 4.99, 5.21, 5.64, 6.08, 6.3, 7.19, 6.7, 6.2, 5.29, 5.06, 5.06, 4.71, 4.6, 2.95, 2.33, 5.0, 8.53, 8.53, 5.06, 6.01, 6.01, 6.64, 5.03, 6.01, 7.82, 8.82, 8.95, 9.05, 8.85, 9.66, 12.33, 11.03, 10.43, 10.63, 11.95, 14.73, 14.13, 12.01, 10.75, 10.65, 11.53, 11.28, 10.52, 8.73, 8.73, 9.48, 11.26, 12.39, 12.42, 12.58, 12.46, 12.83, 12.96, 13.41, 6.53, 6.53, 6.0, 6.0, 6.64, 5.73, 5.92, 4.89, 5.48, 4.24, 4.37, 6.17, 6.17, 6.17, 6.17, 5.99, 5.48, 4.37, 4.0, 4.12, 4.12, 2.8, 2.8, 2.88, 2.8, 1.38, 1.34, 1.47, 1.63, 1.63, 1.68, 0.0, -1.47, -3.88, -3.88, 2.43, 9.06, 11.76, 11.87, 11.06, 10.3, 9.88, 9.06, 7.24, 5.46, 5.95, 5.64, 6.08, 8.05, 8.54, 7.68, 6.67, 5.52, 5.06, 4.71, 4.71, 4.25, 3.51, 3.21, 7.27, 10.04, 9.89, 8.93, 6.52, 6.18, 6.32, 6.01, 6.44, 8.05, 8.95, 8.95, 9.48, 8.53, 9.92, 13.59, 14.7, 8.94, 8.93, 11.17, 13.28, 12.38, 11.43, 11.58, 11.38, 9.8, 9.13, 9.13, 8.05, 9.48, 11.92, 12.83, 12.83, 11.5, 11.2, 11.87, 11.87, 12.35, 12.96, 6.53, 6.53, 6.53, 6.76, 6.64, 5.73, 5.92, 4.89, 5.04, 4.24, 5.64, 6.17, 6.17, 6.17, 6.17, 5.99, 5.99, 5.48, 4.37, 4.0, 4.12, 2.8, 2.8, 2.57, 2.57, 2.5, 1.34, 1.47, 1.58, 0.0, 0.0, 0.0, -2.64, -3.58, -2.18, 2.24, 7.93, 10.12, 10.75, 10.1, 9.61, 8.68, 8.18, 7.41, 6.44, 6.7, 7.69, 9.42, 9.42, 8.51, 7.96, 6.92, 5.52, 4.92, 4.71, 4.71, 4.92, 3.67, 4.62, 8.35, 10.18, 10.43, 8.05, 7.33, 6.32, 5.86, 6.01, 6.73, 8.43, 8.63, 8.8, 8.43, 9.46, 10.09, 12.7, 16.61, 16.61, 12.93, 11.48, 10.61, 10.11, 10.59, 11.32, 10.25, 7.82, 7.69, 8.05, 9.48, 11.6, 12.35, 12.52, 11.87, 10.41, 10.73, 11.2, 10.8, 10.8, 12.35, 6.53, 6.53, 6.53, 6.76, 6.42, 6.64, 5.73, 4.89, 4.89, 5.48, 5.48, 5.99, 6.17, 6.17, 5.99, 5.99, 5.99, 5.48, 4.24, 4.37, 4.0, 4.0, 2.72, 2.57, 2.57, 2.57, 2.64, 1.3, 1.42, 0.0, 0.0, -1.47, -2.64, -2.43, 0.0, 3.0, 6.78, 8.78, 8.94, 8.46, 7.59, 8.43, 7.93, 6.94, 6.45, 6.87, 9.33, 9.61, 9.06, 7.93, 7.69, 6.44, 5.52, 4.71, 4.71, 4.71, 4.92, 4.44, 5.14, 7.48, 9.66, 10.43, 11.5, 8.8, 7.33, 7.21, 6.01, 7.81, 8.0, 8.43, 8.43, 8.4, 9.32, 9.86, 10.59, 15.75, 18.55, 20.6, 18.67, 13.91, 10.65, 10.77, 11.2, 9.46, 7.92, 7.78, 9.17, 11.12, 12.71, 12.71, 11.62, 10.73, 8.85, 7.51, 8.85, 10.04, 10.04, 10.04, 6.31, 6.31, 6.53, 6.53, 6.0, 6.42, 5.73, 5.92, 5.92, 5.31, 5.48, 5.99, 5.99, 5.99, 5.99, 5.99, 5.99, 5.48, 5.48, 4.24, 4.0, 4.0, 2.72, 2.5, 2.5, 2.5, 2.64, 2.56, 2.56, 1.38, 0.0, 0.0, -1.19, 0.0, 1.02, 3.81, 5.81, 6.76, 7.44, 7.36, 7.36, 6.4, 6.73, 6.08, 5.86, 7.44, 7.59, 8.43, 7.93, 6.73, 6.51, 6.21, 5.06, 4.5, 4.71, 4.71, 5.14, 4.44, 5.75, 6.98, 9.0, 10.43, 10.2, 8.55, 8.18, 7.81, 7.81, 8.4, 7.82, 8.05, 8.21, 7.82, 9.32, 8.43, 10.01, 11.9, 16.73, 21.1, 21.53, 18.65, 15.9, 13.75, 12.09, 10.36, 10.46, 11.5, 12.27, 12.96, 12.96, 11.6, 11.2, 10.01, 8.85, 7.51, 10.04, 10.04, 10.04, 10.04, 6.72, 6.72, 6.96, 6.96, 6.42, 6.42, 5.73, 5.73, 5.73, 6.4, 5.31, 5.99, 7.16, 7.16, 5.99, 5.99, 5.99, 5.48, 5.48, 4.24, 4.0, 4.0, 2.72, 2.5, 2.5, 2.5, 2.64, 2.56, 2.48, 2.48, 1.21, 0.0, 0.0, 0.0, 2.02, 3.68, 4.81, 6.0, 6.42, 6.0, 6.2, 6.2, 6.0, 5.86, 5.64, 6.3, 6.95, 6.95, 6.51, 6.08, 5.86, 5.43, 4.2, 4.83, 4.71, 4.71, 5.14, 5.52, 5.75, 6.86, 8.64, 9.76, 10.6, 10.8, 8.55, 8.18, 7.81, 8.18, 7.82, 7.44, 7.58, 8.0, 8.21, 8.12, 8.82, 9.77, 11.42, 16.04, 17.32, 18.65, 17.66, 15.56, 15.59, 15.09, 19.84, 14.11, 12.27, 12.96, 11.6, 9.17, 8.85, 8.85, 8.53, 8.85, 8.53, 10.04, 10.04, 10.04, 6.72, 6.72, 6.96, 6.21, 6.42, 6.42, 5.73, 5.73, 5.92, 6.4, 6.4, 7.16, 7.16, 5.99, 5.99, 5.99, 5.99, 5.99, 5.48, 4.24, 4.0, 4.0, 2.72, 2.5, 2.5, 2.5, 2.64, 2.56, 2.48, 2.4, 2.4, 2.2, 1.11, 2.04, 3.02, 3.94, 4.65, 5.16, 5.55, 6.0, 6.0, 4.98, 5.8, 5.64, 5.43, 5.86, 6.51, 6.51, 6.51, 5.86, 5.43, 4.99, 4.0, 4.2, 4.4, 4.92, 4.92, 5.52, 6.2, 6.86, 7.42, 8.69, 10.04, 10.16, 10.04, 7.68, 6.98, 7.28, 7.96, 7.96, 7.81, 7.58, 7.51, 7.74, 8.07, 8.75, 9.97, 10.43, 14.12, 14.22, 15.06, 16.23, 18.32, 24.24, 17.52, 13.91, 14.39, 10.79, 9.17, 6.94, 9.17, 8.53, 8.85, 8.53, 10.04, 10.4, 10.4, 10.4, 6.72, 6.72, 6.21, 6.21, 5.36, 5.55, 5.55, 5.73, 5.31, 5.31, 5.31, 5.81, 7.16, 5.99, 5.99, 5.99, 5.99, 5.99, 5.48, 5.48, 4.24, 4.0, 4.0, 2.5, 2.5, 2.5, 2.64, 2.56, 2.48, 2.48, 2.4, 2.13, 2.13, 2.92, 3.14, 4.1, 4.1, 4.1, 5.55, 5.8, 4.81, 4.81, 5.8, 5.64, 6.2, 5.86, 6.3, 6.3, 6.3, 5.86, 5.43, 4.78, 4.34, 4.2, 4.4, 5.06, 5.29, 5.95, 6.2, 6.2, 6.86, 7.42, 9.08, 10.24, 9.3, 8.03, 6.98, 6.91, 7.96, 7.96, 7.96, 7.87, 7.13, 6.95, 7.59, 7.9, 8.85, 9.8, 10.92, 12.33, 13.25, 15.21, 19.91, 25.48, 8.63, 8.3, 8.4, 7.44, 7.19, 9.17, 8.85, 11.2, 10.04, 10.04, 10.4, 11.21, 11.21, 11.21, 6.72, 6.72, 6.21, 6.21, 5.55, 5.55, 4.98, 5.15, 5.15, 5.31, 6.4, 6.95, 7.16, 7.16, 7.16, 5.99, 5.99, 5.99, 5.99, 5.48, 4.24, 4.0, 4.0, 2.72, 2.5, 2.5, 2.64, 2.56, 2.48, 2.48, 2.4, 2.32, 2.13, 3.04, 3.04, 3.04, 3.96, 4.28, 4.43, 4.81, 4.81, 4.81, 6.3, 5.86, 5.43, 5.4, 6.08, 6.08, 6.08, 5.64, 5.21, 4.78, 4.34, 4.56, 4.4, 5.06, 5.29, 5.95, 5.92, 5.92, 5.95, 6.86, 7.65, 10.24, 10.4, 8.55, 7.67, 8.0, 8.18, 8.23, 7.87, 7.87, 6.95, 6.95, 8.07, 7.9, 8.53, 9.64, 9.48, 9.32, 11.05, 13.95, 17.74, 26.82, 5.0, 4.56, 4.45, 3.25, 4.1, 10.8, 11.2, 11.2, 10.04, 10.4, 10.79, 11.91, 11.91, 11.91, 6.72, 6.72, 6.21, 5.36, 5.36, 6.0, 5.15, 5.15, 5.15, 5.15, 6.95, 6.95, 6.95, 7.16, 7.16, 7.16, 5.99, 5.99, 5.99, 5.31, 4.11, 3.88, 4.0, 2.72, 2.72, 2.72, 2.64, 2.56, 2.48, 2.48, 2.4, 2.4, 2.13, 2.06, 3.04, 2.93, 3.18, 4.28, 4.28, 4.65, 4.65, 4.65, 5.08, 4.9, 4.54, 4.9, 5.08, 5.08, 5.86, 5.43, 5.21, 4.99, 4.56, 4.34, 4.2, 4.4, 5.29, 5.7, 5.69, 5.69, 5.21, 5.95, 7.65, 10.8, 10.92, 9.6, 8.4, 8.4, 7.68, 7.47, 7.81, 7.47, 8.23, 8.23, 8.12, 8.47, 8.69, 8.97, 9.17, 9.48, 10.22, 12.7, 15.71, 25.45, -0.0, -0.0, -0.0, -0.0, 3.04, 6.7, 8.53, 8.22, 9.67, 10.84, 11.84, 12.52, 12.52, 12.52, 6.72, 6.72, 6.21, 5.36, 5.8, 6.0, 6.2, 5.15, 5.15, 6.95, 6.95, 6.95, 7.16, 7.16, 7.16, 7.16, 5.99, 5.99, 5.99, 5.99, 4.24, 3.88, 4.0, 2.72, 2.72, 2.64, 2.64, 2.56, 3.65, 3.53, 2.4, 2.4, 2.32, 2.06, 3.04, 3.18, 3.18, 3.18, 4.48, 4.65, 4.65, 4.65, 5.08, 4.9, 4.72, 5.08, 5.27, 5.08, 4.72, 4.36, 4.18, 3.99, 3.99, 3.81, 4.56, 4.4, 4.4, 4.99, 5.45, 5.69, 5.69, 5.69, 7.9, 10.8, 10.92, 9.8, 8.34, 7.96, 8.0, 7.13, 8.34, 8.34, 8.99, 8.93, 9.2, 8.79, 9.16, 9.08, 9.3, 9.17, 9.8, 11.13, 14.5, 19.64, 6.51, 4.48, 4.38, 3.14, 3.25, 2.54, 2.93, 6.7, 8.85, 12.58, 12.52, 12.96, 12.96, 12.96, 5.99, 5.99, 6.21, 5.8, 5.8, 6.0, 6.2, 6.2, 6.2, 6.95, 6.95, 6.95, 7.16, 7.16, 7.16, 7.16, 5.99, 5.99, 5.99, 5.99, 4.24, 4.24, 4.0, 2.72, 2.64, 2.64, 3.88, 3.76, 3.65, 3.65, 2.4, 2.4, 2.32, 2.06, 2.24, 3.18, 3.18, 3.18, 3.47, 4.48, 4.48, 4.48, 4.9, 4.9, 4.9, 5.6, 5.27, 5.08, 4.72, 4.8, 4.6, 4.4, 3.99, 3.63, 4.56, 4.56, 4.78, 4.78, 5.21, 5.45, 5.45, 5.45, 8.15, 10.4, 11.34, 10.62, 8.72, 8.6, 8.99, 8.34, 8.34, 7.96, 8.4, 8.99, 9.2, 9.58, 9.16, 9.08, 8.53, 9.17, 9.48, 9.48, 10.83, 14.54, 27.27, 10.4, 4.66, 3.96, 2.63, 2.72, 2.72, 3.25, 11.99, 13.86, 13.41, 12.96, 12.96, 12.96, 5.99, 5.99, 6.44, 6.67, 5.8, 5.8, 6.0, 6.2, 6.73, 6.95, 6.95, 7.16, 7.16, 7.16, 7.16, 7.16, 5.99, 5.99, 5.99, 4.66, 4.24, 4.24, 2.64, 2.64, 2.64, 2.64, 3.88, 3.76, 3.65, 3.65, 2.4, 2.4, 2.32, 2.32, 2.24, 2.16, 3.18, 3.34, 3.34, 4.32, 4.9, 4.9, 4.9, 4.72, 4.9, 5.6, 5.27, 5.08, 4.9, 5.0, 4.6, 4.4, 4.4, 3.63, 4.56, 4.56, 4.56, 5.21, 5.21, 5.21, 5.45, 5.98, 8.15, 9.77, 11.21, 10.4, 9.6, 9.4, 8.99, 8.6, 8.21, 8.21, 8.4, 8.99, 8.99, 8.93, 8.82, 8.69, 8.22, 9.36, 9.69, 9.69, 8.66, 11.88, 16.37, 8.3, 3.79, 2.93, 2.45, 5.31, 5.48, 7.93, 14.3, 13.86, 13.41, 13.41, 13.41, 13.41, 5.99, 5.99, 6.44, 6.67, 5.8, 5.8, 6.0, 6.2, 6.73, 6.95, 6.95, 7.16, 7.16, 7.16, 7.16, 7.16, 5.99, 5.99, 5.99, 4.66, 4.24, 4.24, 2.89, 2.64, 2.64, 2.64, 2.56, 2.56, 2.48, 2.4, 2.4, 2.32, 2.32, 2.32, 2.24, 2.16, 2.37, 3.34, 3.34, 4.72, 4.72, 4.72, 4.72, 4.72, 4.72, 4.72, 4.9, 4.9, 5.4, 5.0, 4.8, 4.6, 4.4, 3.81, 3.63, 4.34, 4.56, 4.98, 4.98, 4.4, 4.4, 5.98, 7.81, 9.48, 10.62, 11.03, 11.3, 10.46, 8.72, 8.18, 8.6, 8.99, 8.99, 9.8, 8.99, 8.93, 8.82, 8.35, 8.41, 8.75, 9.53, 8.85, 8.94, 24.55, 9.47, 3.45, -0.0, -0.0, 2.54, 6.2, 10.43, 14.31, 14.75, 14.16, 13.86, 13.86, 13.86, 13.86, 5.99, 5.99, 6.44, 6.44, 5.8, 5.8, 6.0, 6.0, 6.73, 6.73, 6.95, 6.95, 7.16, 7.16, 7.16, 5.99, 5.99, 5.99, 5.99, 4.81, 4.24, 4.24, 2.89, 2.89, 2.64, 2.56, 2.56, 2.56, 2.48, 2.4, 2.4, 1.17, 1.17, 2.24, 2.24, 2.37, 2.37, 3.34, 3.68, 3.53, 3.68, 3.68, 4.72, 4.72, 3.53, 3.53, 4.72, 5.2, 5.2, 5.0, 4.8, 4.6, 4.4, 4.4, 4.2, 3.63, 4.74, 4.74, 4.2, 4.2, 4.66, 5.72, 7.9, 9.1, 10.0, 10.62, 11.45, 10.21, 8.72, 8.34, 8.34, 8.99, 9.38, 9.38, 9.77, 9.38, 9.3, 9.3, 9.3, 8.93, 9.3, 9.36, 12.3, 21.59, -0.0, -0.0, -0.0, -0.0, 3.25, 7.69, 13.19, 14.75, 14.55, 14.19, 14.3, 14.3, 14.3, 14.3, 6.44, 6.44, 6.44, 5.6, 5.6, 5.8, 6.0, 6.73, 6.73, 6.73, 6.73, 6.95, 7.16, 7.16, 7.16, 5.99, 5.99, 5.99, 4.66, 4.81, 4.37, 4.24, 2.89, 2.89, 2.81, 2.81, 2.81, 2.48, 2.48, 1.21, 1.21, 1.17, 1.17, 2.24, 2.24, 2.37, 3.47, 3.68, 3.68, 3.53, 3.53, 3.68, 4.08, 3.92, 3.92, 3.77, 4.8, 4.8, 4.8, 4.8, 4.8, 4.6, 4.4, 4.4, 4.4, 4.2, 4.0, 4.0, 4.44, 4.2, 4.66, 6.01, 7.56, 8.37, 10.0, 10.4, 10.88, 10.21, 9.6, 8.34, 8.34, 9.4, 8.99, 9.38, 9.38, 9.2, 9.77, 10.0, 9.58, 9.3, 9.67, 9.53, 11.57, 16.6, -0.0, -0.0, -0.0, -0.0, 4.38, 10.12, 14.75, 14.31, 14.42, 14.68, 14.3, 14.26, 14.26, 14.26, 6.44, 6.44, 6.44, 5.6, 5.6, 5.6, 5.8, 6.51, 6.51, 6.51, 6.73, 6.95, 6.95, 7.16, 5.99, 5.99, 5.99, 4.66, 4.66, 4.81, 4.37, 2.98, 2.98, 2.89, 2.81, 2.81, 1.42, 1.25, 1.25, 1.21, 1.17, 1.17, 1.13, 1.13, 2.45, 2.37, 3.82, 3.68, 3.53, 3.53, 3.53, 3.92, 3.92, 3.92, 3.77, 3.77, 4.8, 4.8, 4.6, 4.6, 4.6, 4.6, 4.6, 4.4, 4.4, 4.2, 4.2, 4.0, 4.44, 4.44, 4.66, 6.01, 6.95, 8.55, 9.32, 9.7, 10.46, 10.6, 8.99, 8.34, 9.2, 9.4, 9.38, 9.77, 9.48, 9.2, 9.21, 8.99, 9.38, 8.93, 8.94, 9.48, 9.23, 12.42, 12.59, -6.22, -0.0, -0.0, -0.0, 14.75, 13.59, 13.03, 15.27, 15.2, 14.75, 14.26, 14.26, 14.26, 6.44, 6.44, 5.6, 5.6, 5.8, 5.8, 5.8, 6.3, 6.51, 6.51, 6.73, 6.95, 6.95, 7.16, 5.99, 5.99, 4.66, 4.66, 4.66, 3.2, 2.98, 2.98, 2.98, 1.47, 1.42, 1.42, 1.42, 1.25, 0.0, 0.0, 0.0, 1.13, 1.13, 1.25, 2.37, 2.37, 2.62, 3.68, 3.68, 3.92, 3.92, 3.92, 3.92, 3.92, 3.77, 3.77, 4.8, 4.6, 3.61, 4.6, 4.6, 4.6, 4.6, 4.4, 4.4, 4.4, 4.2, 4.44, 4.44, 4.44, 4.44, 5.21, 6.95, 8.55, 8.55, 8.93, 9.86, 10.05, 9.4, 9.63, 9.63, 9.8, 9.38, 9.77, 9.1, 9.2, 9.04, 8.8, 8.72, 8.58, 7.9, 7.24, 7.36, 7.87, 7.77, -27.59, -10.29, -7.4, 0.0, 0.0, 10.75, 13.59, 15.39, 15.65, 14.7, 14.7, 14.7, 14.7, 5.6, 5.6, 5.6, 5.6, 5.8, 5.8, 6.3, 6.51, 6.51, 6.51, 6.73, 6.73, 6.95, 5.99, 5.99, 5.99, 4.66, 4.66, 3.2, 3.3, 2.98, 1.51, 1.51, 1.47, 1.42, 1.42, 0.0, 0.0, 0.0, 0.0, 0.0, 0.0, 0.0, 1.2, 1.2, 2.62, 2.52, 2.82, 2.82, 2.71, 3.92, 3.92, 3.92, 3.77, 3.77, 3.77, 3.77, 3.61, 4.6, 4.6, 4.6, 4.4, 4.6, 4.4, 4.88, 4.4, 4.2, 4.66, 4.44, 3.35, 4.44, 4.96, 5.86, 6.95, 7.68, 7.68, 9.2, 9.45, 9.63, 10.32, 10.05, 9.6, 9.1, 9.48, 9.1, 8.93, 8.18, 7.21, 8.0, 6.98, 6.71, 5.64, 6.2, 5.0, 4.93, 0.0, -24.17, -18.23, -15.65, 0.0, 13.99, 14.42, 15.43, 15.65, 15.14, 14.69, 14.69, 14.69, 5.6, 5.6, 5.6, 5.6, 5.8, 6.3, 6.3, 6.51, 6.51, 5.45, 5.63, 5.63, 5.81, 5.81, 5.99, 4.52, 4.52, 3.2, 3.2, 3.2, 1.68, 1.51, 1.51, 1.51, 0.0, 0.0, 0.0, 0.0, 0.0, 0.0, 0.0, 0.0, 0.0, 1.2, 1.33, 1.33, 1.5, 2.82, 2.82, 2.71, 2.71, 2.71, 4.23, 4.23, 4.23, 4.23, 4.05, 4.05, 5.1, 5.1, 5.1, 4.4, 4.4, 4.4, 4.88, 4.66, 4.2, 4.2, 3.7, 3.52, 3.35, 3.8, 4.96, 5.59, 6.64, 7.33, 7.68, 8.8, 9.04, 9.21, 8.34, 8.73, 8.73, 8.37, 8.37, 7.9, 7.9, 6.3, 5.72, 6.24, 5.92, 4.72, 4.98, 4.86, 5.3, 3.67, 0.0, -14.86, 0.0, 11.7, 14.39, 14.7, 15.43, 16.09, 15.39, 15.39, 15.39, 15.39, 5.6, 5.6, 5.6, 6.08, 6.08, 5.27, 5.27, 5.27, 5.45, 5.45, 5.63, 5.63, 5.81, 4.52, 4.52, 4.52, 3.1, 3.1, 3.2, 1.63, 1.63, 1.51, 1.51, 0.0, 0.0, 0.0, 0.0, 0.0, 0.0, 0.0, 0.0, 0.0, 0.0, 0.0, 1.33, 1.33, 1.5, 1.44, 2.82, 2.82, 3.07, 3.07, 4.4, 4.23, 4.23, 4.23, 4.05, 5.1, 5.1, 5.1, 4.88, 4.4, 3.45, 3.87, 3.87, 3.7, 4.2, 4.0, 3.7, 3.52, 3.52, 3.35, 3.8, 4.0, 5.59, 5.86, 7.33, 7.81, 7.81, 8.54, 8.0, 9.3, 9.09, 7.9, 6.95, 6.58, 6.58, 5.1, 5.1, 4.8, 5.0, 4.9, 4.98, 4.73, 6.36, 6.02, 5.91, 5.53, 10.41, 15.02, 14.18, 15.06, 16.22, 16.47, 16.27, 15.18, 15.18, 15.18, 5.6, 5.6, 6.3, 5.27, 5.27, 5.27, 5.27, 5.27, 5.27, 4.24, 4.24, 4.38, 4.52, 4.52, 4.52, 3.1, 3.1, 3.1, 1.58, 1.63, 1.63, 1.47, 0.0, 0.0, 0.0, 0.0, 0.0, 0.0, 0.0, 0.0, 0.0, 0.0, 0.0, 0.0, 0.0, 0.0, 1.44, 1.44, 1.44, 3.07, 3.07, 3.07, 4.4, 4.23, 4.23, 4.23, 4.23, 5.1, 5.1, 5.1, 3.45, 3.45, 3.45, 3.45, 3.7, 3.7, 3.3, 3.14, 3.14, 3.52, 3.52, 3.35, 3.35, 3.8, 4.0, 4.96, 5.59, 6.64, 7.81, 7.81, 8.0, 7.47, 6.4, 5.98, 6.58, 6.58, 6.58, 5.1, 4.6, 4.8, 5.0, 4.72, 5.8, 5.85, 7.14, 8.88, 9.2, 11.16, 12.95, 14.82, 13.41, 14.85, 16.58, 16.9, 15.84, 14.99, 14.99, 14.99, 5.6, 5.6, 6.3, 5.27, 5.27, 5.27, 5.27, 5.27, 5.27, 4.24, 4.24, 4.38, 4.52, 4.52, 4.52, 3.1, 3.1, 3.1, 1.58, 1.63, 1.63, 1.47, 0.0, 0.0, 0.0, 0.0, 0.0, 0.0, 0.0, 0.0, 0.0, 0.0, 0.0, 0.0, 0.0, 0.0, 1.44, 1.44, 1.44, 3.07, 3.07, 3.07, 4.4, 4.23, 4.23, 4.23, 4.23, 5.1, 5.1, 5.1, 3.45, 3.45, 3.45, 3.45, 3.7, 3.7, 3.3, 3.14, 3.14, 3.52, 3.52, 3.35, 3.35, 3.8, 4.0, 4.96, 5.59, 6.64, 7.81, 7.81, 8.0, 7.47, 6.4, 5.98, 6.58, 6.58, 5.1, 5.1, 4.6, 4.8, 5.0, 5.43, 5.4, 5.92, 7.12, 9.26, 10.78, 11.83, 13.36, 13.59, 13.46, 14.19, 17.19, 17.74, 15.69, 14.53, 14.53, 14.53]}]